Time,TemperatureF,DewpointF,PressureIn,WindDirection,WindDirectionDegrees,WindSpeedMPH,WindSpeedGustMPH,Humidity,HourlyPrecipIn,Conditions,Clouds,dailyrainin,SolarRadiationWatts/m^2,SoftwareType,DateUTC
2013-04-28 00:04:00,56.6,42.4,30.10,SSE,149,7.0,8.0,59,0.00,,,0.00,0,Wunderground v.1.15,2013-04-28 05:04:00,
2013-04-28 00:05:00,56.6,42.4,30.10,SE,144,8.0,8.0,59,0.00,,,0.00,0,Wunderground v.1.15,2013-04-28 05:05:00,
2013-04-28 00:06:00,56.5,42.3,30.10,South,177,12.0,12.0,59,0.00,,,0.00,0,Wunderground v.1.15,2013-04-28 05:06:00,
2013-04-28 00:07:00,56.6,42.4,30.10,South,173,3.0,12.0,59,0.00,,,0.00,0,Wunderground v.1.15,2013-04-28 05:07:00,
2013-04-28 00:09:00,56.4,42.2,30.10,SSE,164,6.0,12.0,59,0.00,,,0.00,0,Wunderground v.1.15,2013-04-28 05:09:00,
2013-04-28 00:12:00,56.4,42.2,30.10,South,172,5.0,11.0,59,0.00,,,0.00,0,Wunderground v.1.15,2013-04-28 05:12:00,
2013-04-28 00:13:00,56.4,42.2,30.10,South,169,10.0,11.0,59,0.00,,,0.00,0,Wunderground v.1.15,2013-04-28 05:13:00,
2013-04-28 00:16:00,56.4,42.2,30.09,SSW,201,2.0,11.0,59,0.00,,,0.00,0,Wunderground v.1.15,2013-04-28 05:16:00,
2013-04-28 00:17:00,56.3,42.1,30.10,SSW,199,6.0,11.0,59,0.00,,,0.00,0,Wunderground v.1.15,2013-04-28 05:17:00,
2013-04-28 00:19:00,56.3,42.1,30.10,South,171,8.0,11.0,59,0.00,,,0.00,0,Wunderground v.1.15,2013-04-28 05:19:00,
2013-04-28 00:20:00,56.3,42.1,30.10,South,181,7.0,7.0,59,0.00,,,0.00,0,Wunderground v.1.15,2013-04-28 05:20:00,
2013-04-28 00:23:00,56.3,42.1,30.10,SW,216,9.0,10.0,59,0.00,,,0.00,0,Wunderground v.1.15,2013-04-28 05:23:00,
2013-04-28 00:25:00,56.2,42.1,30.10,South,184,5.0,10.0,59,0.00,,,0.00,0,Wunderground v.1.15,2013-04-28 05:25:00,
2013-04-28 00:26:00,56.2,42.1,30.09,South,172,3.0,10.0,59,0.00,,,0.00,0,Wunderground v.1.15,2013-04-28 05:26:00,
2013-04-28 00:27:00,56.2,42.1,30.09,South,188,9.0,10.0,59,0.00,,,0.00,0,Wunderground v.1.15,2013-04-28 05:27:00,
2013-04-28 00:31:00,56.0,41.9,30.10,South,174,5.0,8.0,59,0.00,,,0.00,0,Wunderground v.1.15,2013-04-28 05:31:00,
2013-04-28 00:33:00,56.0,41.9,30.10,SSE,147,12.0,12.0,59,0.00,,,0.00,0,Wunderground v.1.15,2013-04-28 05:33:00,
2013-04-28 00:34:00,55.9,41.8,30.09,SSE,156,1.0,12.0,59,0.00,,,0.00,0,Wunderground v.1.15,2013-04-28 05:34:00,
2013-04-28 00:35:00,55.9,41.8,30.09,SSE,165,5.0,12.0,59,0.00,,,0.00,0,Wunderground v.1.15,2013-04-28 05:35:00,
2013-04-28 00:37:00,55.8,41.7,30.09,South,170,10.0,12.0,59,0.00,,,0.00,0,Wunderground v.1.15,2013-04-28 05:37:00,
2013-04-28 00:38:00,55.8,42.1,30.09,SSE,156,4.0,12.0,60,0.00,,,0.00,0,Wunderground v.1.15,2013-04-28 05:38:00,
2013-04-28 00:39:00,55.8,42.1,30.09,SSE,159,10.0,12.0,60,0.00,,,0.00,0,Wunderground v.1.15,2013-04-28 05:39:00,
2013-04-28 00:42:00,55.7,41.6,30.09,South,174,9.0,9.0,59,0.00,,,0.00,0,Wunderground v.1.15,2013-04-28 05:42:00,
2013-04-28 00:43:00,55.7,41.6,30.09,SSE,151,7.0,9.0,59,0.00,,,0.00,0,Wunderground v.1.15,2013-04-28 05:43:00,
2013-04-28 00:47:00,55.6,41.9,30.09,SSE,159,4.0,13.0,60,0.00,,,0.00,0,Wunderground v.1.15,2013-04-28 05:47:00,
2013-04-28 00:48:00,55.5,41.8,30.08,SSE,164,7.0,13.0,60,0.00,,,0.00,0,Wunderground v.1.15,2013-04-28 05:48:00,
2013-04-28 00:49:00,55.5,41.8,30.09,South,173,6.0,13.0,60,0.00,,,0.00,0,Wunderground v.1.15,2013-04-28 05:49:00,
2013-04-28 00:53:00,55.3,41.6,30.09,South,176,7.0,7.0,60,0.00,,,0.00,0,Wunderground v.1.15,2013-04-28 05:53:00,
2013-04-28 00:54:00,55.3,41.6,30.09,South,188,5.0,7.0,60,0.00,,,0.00,0,Wunderground v.1.15,2013-04-28 05:54:00,
2013-04-28 00:55:00,55.3,41.6,30.09,SSE,165,8.0,8.0,60,0.00,,,0.00,0,Wunderground v.1.15,2013-04-28 05:55:00,
2013-04-28 00:57:00,55.2,41.5,30.09,South,189,6.0,8.0,60,0.00,,,0.00,0,Wunderground v.1.15,2013-04-28 05:57:00,
2013-04-28 01:00:00,55.1,41.5,30.09,South,187,1.0,1.0,60,0.00,,,0.00,0,Wunderground v.1.15,2013-04-28 06:00:00,
2013-04-28 01:01:00,55.1,41.5,30.09,SSE,162,6.0,6.0,60,0.00,,,0.00,0,Wunderground v.1.15,2013-04-28 06:01:00,
2013-04-28 01:05:00,54.9,41.7,30.09,SSE,162,7.0,9.0,61,0.00,,,0.00,0,Wunderground v.1.15,2013-04-28 06:05:00,
2013-04-28 01:06:00,54.9,41.3,30.09,South,188,7.0,9.0,60,0.00,,,0.00,0,Wunderground v.1.15,2013-04-28 06:06:00,
2013-04-28 01:07:00,54.8,41.6,30.09,SSE,159,5.0,9.0,61,0.00,,,0.00,0,Wunderground v.1.15,2013-04-28 06:07:00,
2013-04-28 01:12:00,54.7,41.5,30.09,SSE,162,2.0,9.0,61,0.00,,,0.00,0,Wunderground v.1.15,2013-04-28 06:12:00,
2013-04-28 01:13:00,54.6,41.4,30.09,SSE,162,4.0,9.0,61,0.00,,,0.00,0,Wunderground v.1.15,2013-04-28 06:13:00,
2013-04-28 01:17:00,54.5,41.3,30.09,South,176,12.0,12.0,61,0.00,,,0.00,0,Wunderground v.1.15,2013-04-28 06:17:00,
2013-04-28 01:18:00,54.5,41.3,30.09,South,172,9.0,12.0,61,0.00,,,0.00,0,Wunderground v.1.15,2013-04-28 06:18:00,
2013-04-28 01:19:00,54.5,41.3,30.08,SSE,168,12.0,12.0,61,0.00,,,0.00,0,Wunderground v.1.15,2013-04-28 06:19:00,
2013-04-28 01:22:00,54.4,41.2,30.09,SSE,160,4.0,8.0,61,0.00,,,0.00,0,Wunderground v.1.15,2013-04-28 06:22:00,
2013-04-28 01:24:00,54.3,41.1,30.09,SSE,165,7.0,8.0,61,0.00,,,0.00,0,Wunderground v.1.15,2013-04-28 06:24:00,
2013-04-28 01:25:00,54.3,41.6,30.09,South,176,2.0,8.0,62,0.00,,,0.00,0,Wunderground v.1.15,2013-04-28 06:25:00,
2013-04-28 01:26:00,54.3,41.1,30.09,South,174,9.0,9.0,61,0.00,,,0.00,0,Wunderground v.1.15,2013-04-28 06:26:00,
2013-04-28 01:27:00,54.2,41.5,30.09,SSE,162,5.0,9.0,62,0.00,,,0.00,0,Wunderground v.1.15,2013-04-28 06:27:00,
2013-04-28 01:28:00,54.2,41.5,30.09,SSE,166,7.0,9.0,62,0.00,,,0.00,0,Wunderground v.1.15,2013-04-28 06:28:00,
2013-04-28 01:30:00,54.1,41.4,30.09,SSE,161,8.0,8.0,62,0.00,,,0.00,0,Wunderground v.1.15,2013-04-28 06:30:00,
2013-04-28 01:32:00,54.0,41.3,30.08,SSE,160,5.0,8.0,62,0.00,,,0.00,0,Wunderground v.1.15,2013-04-28 06:32:00,
2013-04-28 01:34:00,54.0,41.3,30.08,SSE,150,10.0,10.0,62,0.00,,,0.00,0,Wunderground v.1.15,2013-04-28 06:34:00,
2013-04-28 01:35:00,54.0,41.3,30.08,South,174,6.0,10.0,62,0.00,,,0.00,0,Wunderground v.1.15,2013-04-28 06:35:00,
2013-04-28 01:37:00,53.9,41.6,30.08,SSE,150,6.0,10.0,63,0.00,,,0.00,0,Wunderground v.1.15,2013-04-28 06:37:00,
2013-04-28 01:40:00,53.8,41.5,30.08,SSE,160,7.0,7.0,63,0.00,,,0.00,0,Wunderground v.1.15,2013-04-28 06:40:00,
2013-04-28 01:42:00,53.7,41.4,30.08,SSE,168,4.0,7.0,63,0.00,,,0.00,0,Wunderground v.1.15,2013-04-28 06:42:00,
2013-04-28 01:44:00,53.6,41.3,30.09,South,187,12.0,12.0,63,0.00,,,0.00,0,Wunderground v.1.15,2013-04-28 06:44:00,
2013-04-28 01:47:00,53.6,41.3,30.08,South,172,9.0,12.0,63,0.00,,,0.00,0,Wunderground v.1.15,2013-04-28 06:47:00,
2013-04-28 01:48:00,53.6,41.3,30.08,SSE,166,7.0,12.0,63,0.00,,,0.00,0,Wunderground v.1.15,2013-04-28 06:48:00,
2013-04-28 01:49:00,53.6,41.3,30.08,South,170,10.0,12.0,63,0.00,,,0.00,0,Wunderground v.1.15,2013-04-28 06:49:00,
2013-04-28 01:50:00,53.5,41.2,30.08,South,170,4.0,4.0,63,0.00,,,0.00,0,Wunderground v.1.15,2013-04-28 06:50:00,
2013-04-28 01:52:00,53.5,41.2,30.08,SSE,149,12.0,12.0,63,0.00,,,0.00,0,Wunderground v.1.15,2013-04-28 06:52:00,
2013-04-28 01:54:00,53.5,41.2,30.09,SSE,167,8.0,12.0,63,0.00,,,0.00,0,Wunderground v.1.15,2013-04-28 06:54:00,
2013-04-28 01:55:00,53.5,41.2,30.09,SSE,152,3.0,12.0,63,0.00,,,0.00,0,Wunderground v.1.15,2013-04-28 06:55:00,
2013-04-28 01:57:00,53.4,41.1,30.09,SSE,152,2.0,12.0,63,0.00,,,0.00,0,Wunderground v.1.15,2013-04-28 06:57:00,
2013-04-28 01:59:00,53.4,41.1,30.09,SSE,156,5.0,12.0,63,0.00,,,0.00,0,Wunderground v.1.15,2013-04-28 06:59:00,
2013-04-28 02:00:00,53.3,41.4,30.08,SSW,195,12.0,12.0,64,0.00,,,0.00,0,Wunderground v.1.15,2013-04-28 07:00:00,
2013-04-28 02:02:00,53.3,41.4,30.08,SSE,163,7.0,12.0,64,0.00,,,0.00,0,Wunderground v.1.15,2013-04-28 07:02:00,
2013-04-28 02:04:00,53.4,41.1,30.08,SSE,158,1.0,12.0,63,0.00,,,0.00,0,Wunderground v.1.15,2013-04-28 07:04:00,
2013-04-28 02:05:00,53.3,41.0,30.09,SSE,163,10.0,12.0,63,0.00,,,0.00,0,Wunderground v.1.15,2013-04-28 07:05:00,
2013-04-28 02:07:00,53.3,41.4,30.08,SSE,166,9.0,16.0,64,0.00,,,0.00,0,Wunderground v.1.15,2013-04-28 07:07:00,
2013-04-28 02:09:00,53.3,41.4,30.08,South,190,6.0,16.0,64,0.00,,,0.00,0,Wunderground v.1.15,2013-04-28 07:09:00,
2013-04-28 02:10:00,53.3,41.4,30.08,South,174,8.0,14.0,64,0.00,,,0.00,0,Wunderground v.1.15,2013-04-28 07:10:00,
2013-04-28 02:11:00,53.3,41.4,30.08,SSE,166,7.0,14.0,64,0.00,,,0.00,0,Wunderground v.1.15,2013-04-28 07:11:00,
2013-04-28 02:12:00,53.3,41.4,30.08,SSE,154,7.0,14.0,64,0.00,,,0.00,0,Wunderground v.1.15,2013-04-28 07:12:00,
2013-04-28 02:14:00,53.2,41.3,30.08,SSE,148,7.0,14.0,64,0.00,,,0.00,0,Wunderground v.1.15,2013-04-28 07:14:00,
2013-04-28 02:15:00,53.2,41.3,30.08,SSW,205,7.0,14.0,64,0.00,,,0.00,0,Wunderground v.1.15,2013-04-28 07:15:00,
2013-04-28 02:16:00,53.2,41.3,30.07,SSW,196,3.0,14.0,64,0.00,,,0.00,0,Wunderground v.1.15,2013-04-28 07:16:00,
2013-04-28 02:17:00,53.2,41.3,30.08,South,173,6.0,14.0,64,0.00,,,0.00,0,Wunderground v.1.15,2013-04-28 07:17:00,
2013-04-28 02:20:00,53.2,41.3,30.07,SSE,165,2.0,14.0,64,0.00,,,0.00,0,Wunderground v.1.15,2013-04-28 07:20:00,
2013-04-28 02:21:00,53.1,41.2,30.08,SSE,165,2.0,6.0,64,0.00,,,0.00,0,Wunderground v.1.15,2013-04-28 07:21:00,
2013-04-28 02:22:00,53.1,41.2,30.07,SSE,168,6.0,11.0,64,0.00,,,0.00,0,Wunderground v.1.15,2013-04-28 07:22:00,
2013-04-28 02:25:00,53.1,41.2,30.07,SSW,192,10.0,11.0,64,0.00,,,0.00,0,Wunderground v.1.15,2013-04-28 07:25:00,
2013-04-28 02:26:00,53.0,41.1,30.07,SSE,163,3.0,11.0,64,0.00,,,0.00,0,Wunderground v.1.15,2013-04-28 07:26:00,
2013-04-28 02:27:00,53.0,41.1,30.07,South,175,7.0,11.0,64,0.00,,,0.00,0,Wunderground v.1.15,2013-04-28 07:27:00,
2013-04-28 02:30:00,53.0,41.1,30.07,SSW,201,2.0,2.0,64,0.00,,,0.00,0,Wunderground v.1.15,2013-04-28 07:30:00,
2013-04-28 02:31:00,53.0,41.1,30.08,SSW,198,6.0,8.0,64,0.00,,,0.00,0,Wunderground v.1.15,2013-04-28 07:31:00,
2013-04-28 02:32:00,52.9,41.0,30.07,SSW,198,6.0,8.0,64,0.00,,,0.00,0,Wunderground v.1.15,2013-04-28 07:32:00,
2013-04-28 02:33:00,52.9,41.4,30.07,South,180,7.0,8.0,65,0.00,,,0.00,0,Wunderground v.1.15,2013-04-28 07:33:00,
2013-04-28 02:36:00,53.0,41.5,30.08,SSW,195,4.0,13.0,65,0.00,,,0.00,0,Wunderground v.1.15,2013-04-28 07:36:00,
2013-04-28 02:37:00,53.0,41.1,30.08,SSW,198,8.0,13.0,64,0.00,,,0.00,0,Wunderground v.1.15,2013-04-28 07:37:00,
2013-04-28 02:38:00,53.0,41.5,30.08,SSW,198,4.0,13.0,65,0.00,,,0.00,0,Wunderground v.1.15,2013-04-28 07:38:00,
2013-04-28 02:41:00,53.0,41.5,30.08,SW,217,7.0,10.0,65,0.00,,,0.00,0,Wunderground v.1.15,2013-04-28 07:41:00,
2013-04-28 02:42:00,53.0,41.5,30.08,SW,217,4.0,10.0,65,0.00,,,0.00,0,Wunderground v.1.15,2013-04-28 07:42:00,
2013-04-28 02:43:00,53.0,41.5,30.08,SSW,208,11.0,12.0,65,0.00,,,0.00,0,Wunderground v.1.15,2013-04-28 07:43:00,
2013-04-28 02:47:00,53.0,41.5,30.07,SW,215,6.0,13.0,65,0.00,,,0.00,0,Wunderground v.1.15,2013-04-28 07:47:00,
2013-04-28 02:48:00,52.9,41.4,30.07,South,187,6.0,13.0,65,0.00,,,0.00,0,Wunderground v.1.15,2013-04-28 07:48:00,
2013-04-28 02:52:00,52.9,41.4,30.08,SSW,213,9.0,10.0,65,0.00,,,0.00,0,Wunderground v.1.15,2013-04-28 07:52:00,
2013-04-28 02:53:00,52.9,41.4,30.07,SSE,159,6.0,12.0,65,0.00,,,0.00,0,Wunderground v.1.15,2013-04-28 07:53:00,
2013-04-28 02:54:00,52.9,41.4,30.07,SSW,208,12.0,12.0,65,0.00,,,0.00,0,Wunderground v.1.15,2013-04-28 07:54:00,
2013-04-28 02:57:00,52.9,41.4,30.08,SSW,201,6.0,13.0,65,0.00,,,0.00,0,Wunderground v.1.15,2013-04-28 07:57:00,
2013-04-28 02:58:00,52.9,41.4,30.08,SSW,198,7.0,13.0,65,0.00,,,0.00,0,Wunderground v.1.15,2013-04-28 07:58:00,
2013-04-28 02:59:00,52.9,41.8,30.07,SSW,201,0.0,13.0,66,0.00,,,0.00,0,Wunderground v.1.15,2013-04-28 07:59:00,
2013-04-28 03:02:00,52.8,41.7,30.07,SSW,210,1.0,8.0,66,0.00,,,0.00,0,Wunderground v.1.15,2013-04-28 08:02:00,
2013-04-28 03:03:00,52.8,41.4,30.07,SSW,209,5.0,8.0,65,0.00,,,0.00,0,Wunderground v.1.15,2013-04-28 08:03:00,
2013-04-28 03:04:00,52.7,41.7,30.07,SSW,198,7.0,8.0,66,0.00,,,0.00,0,Wunderground v.1.15,2013-04-28 08:04:00,
2013-04-28 03:07:00,52.7,41.7,30.07,SSW,206,4.0,16.0,66,0.00,,,0.00,0,Wunderground v.1.15,2013-04-28 08:07:00,
2013-04-28 03:08:00,52.7,42.0,30.07,South,188,7.0,16.0,67,0.00,,,0.00,0,Wunderground v.1.15,2013-04-28 08:08:00,
2013-04-28 03:09:00,52.7,41.7,30.07,SSW,200,6.0,16.0,66,0.00,,,0.00,0,Wunderground v.1.15,2013-04-28 08:09:00,
2013-04-28 03:10:00,52.7,42.0,30.07,South,174,6.0,6.0,67,0.00,,,0.00,0,Wunderground v.1.15,2013-04-28 08:10:00,
2013-04-28 03:12:00,52.8,41.7,30.07,South,186,4.0,16.0,66,0.00,,,0.00,0,Wunderground v.1.15,2013-04-28 08:12:00,
2013-04-28 03:13:00,52.8,41.7,30.07,South,179,2.0,16.0,66,0.00,,,0.00,0,Wunderground v.1.15,2013-04-28 08:13:00,
2013-04-28 03:14:00,52.8,41.7,30.07,South,180,3.0,16.0,66,0.00,,,0.00,0,Wunderground v.1.15,2013-04-28 08:14:00,
2013-04-28 03:15:00,52.7,41.7,30.07,SSW,198,10.0,16.0,66,0.00,,,0.00,0,Wunderground v.1.15,2013-04-28 08:15:00,
2013-04-28 03:17:00,52.7,41.7,30.07,SSW,204,10.0,16.0,66,0.00,,,0.00,0,Wunderground v.1.15,2013-04-28 08:17:00,
2013-04-28 03:18:00,52.7,42.0,30.07,SSW,206,8.0,16.0,67,0.00,,,0.00,0,Wunderground v.1.15,2013-04-28 08:18:00,
2013-04-28 03:19:00,52.7,41.7,30.07,SW,214,10.0,16.0,66,0.00,,,0.00,0,Wunderground v.1.15,2013-04-28 08:19:00,
2013-04-28 03:20:00,52.7,41.7,30.07,SW,215,9.0,9.0,66,0.00,,,0.00,0,Wunderground v.1.15,2013-04-28 08:20:00,
2013-04-28 03:22:00,52.7,41.7,30.07,South,189,15.0,19.0,66,0.00,,,0.00,0,Wunderground v.1.15,2013-04-28 08:22:00,
2013-04-28 03:24:00,52.7,42.0,30.08,SSW,192,4.0,19.0,67,0.00,,,0.00,0,Wunderground v.1.15,2013-04-28 08:24:00,
2013-04-28 03:25:00,52.6,41.6,30.07,SSW,200,7.0,19.0,66,0.00,,,0.00,0,Wunderground v.1.15,2013-04-28 08:25:00,
2013-04-28 03:28:00,52.5,41.9,30.08,SSW,213,11.0,19.0,67,0.00,,,0.00,0,Wunderground v.1.15,2013-04-28 08:28:00,
2013-04-28 03:29:00,52.5,41.9,30.07,SSW,209,10.0,19.0,67,0.00,,,0.00,0,Wunderground v.1.15,2013-04-28 08:29:00,
2013-04-28 03:31:00,52.5,41.9,30.07,SSW,209,12.0,12.0,67,0.00,,,0.00,0,Wunderground v.1.15,2013-04-28 08:31:00,
2013-04-28 03:33:00,52.5,41.9,30.07,SSW,192,1.0,15.0,67,0.00,,,0.00,0,Wunderground v.1.15,2013-04-28 08:33:00,
2013-04-28 03:34:00,52.4,41.8,30.07,South,190,6.0,15.0,67,0.00,,,0.00,0,Wunderground v.1.15,2013-04-28 08:34:00,
2013-04-28 03:35:00,52.4,41.8,30.07,SSW,192,5.0,15.0,67,0.00,,,0.00,0,Wunderground v.1.15,2013-04-28 08:35:00,
2013-04-28 03:36:00,52.3,41.7,30.07,SSW,201,12.0,15.0,67,0.00,,,0.00,0,Wunderground v.1.15,2013-04-28 08:36:00,
2013-04-28 03:38:00,52.3,41.7,30.07,SSW,196,6.0,16.0,67,0.00,,,0.00,0,Wunderground v.1.15,2013-04-28 08:38:00,
2013-04-28 03:39:00,52.2,41.6,30.07,SSW,199,10.0,16.0,67,0.00,,,0.00,0,Wunderground v.1.15,2013-04-28 08:39:00,
2013-04-28 03:40:00,52.2,41.6,30.07,SSW,208,11.0,16.0,67,0.00,,,0.00,0,Wunderground v.1.15,2013-04-28 08:40:00,
2013-04-28 03:42:00,52.2,41.6,30.07,SW,215,6.0,13.0,67,0.00,,,0.00,0,Wunderground v.1.15,2013-04-28 08:42:00,
2013-04-28 03:43:00,52.2,41.6,30.07,South,184,6.0,13.0,67,0.00,,,0.00,0,Wunderground v.1.15,2013-04-28 08:43:00,
2013-04-28 03:45:00,52.1,41.5,30.07,SSE,163,5.0,13.0,67,0.00,,,0.00,0,Wunderground v.1.15,2013-04-28 08:45:00,
2013-04-28 03:46:00,52.0,41.8,30.07,South,170,3.0,13.0,68,0.00,,,0.00,0,Wunderground v.1.15,2013-04-28 08:46:00,
2013-04-28 03:47:00,52.0,41.4,30.07,South,171,2.0,13.0,67,0.00,,,0.00,0,Wunderground v.1.15,2013-04-28 08:47:00,
2013-04-28 03:49:00,51.9,41.7,30.07,South,184,6.0,13.0,68,0.00,,,0.00,0,Wunderground v.1.15,2013-04-28 08:49:00,
2013-04-28 03:50:00,51.9,41.7,30.07,South,185,5.0,5.0,68,0.00,,,0.00,0,Wunderground v.1.15,2013-04-28 08:50:00,
2013-04-28 03:52:00,51.8,41.2,30.07,SSW,208,9.0,9.0,67,0.00,,,0.00,0,Wunderground v.1.15,2013-04-28 08:52:00,
2013-04-28 03:54:00,51.8,41.6,30.07,SSE,162,4.0,12.0,68,0.00,,,0.00,0,Wunderground v.1.15,2013-04-28 08:54:00,
2013-04-28 03:55:00,51.8,41.6,30.07,SSW,208,10.0,12.0,68,0.00,,,0.00,0,Wunderground v.1.15,2013-04-28 08:55:00,
2013-04-28 03:57:00,51.8,41.6,30.07,South,170,7.0,13.0,68,0.00,,,0.00,0,Wunderground v.1.15,2013-04-28 08:57:00,
2013-04-28 04:00:00,51.8,41.2,30.07,SSE,167,5.0,5.0,67,0.00,,,0.00,0,Wunderground v.1.15,2013-04-28 09:00:00,
2013-04-28 04:01:00,51.7,41.5,30.07,SSE,168,2.0,7.0,68,0.00,,,0.00,0,Wunderground v.1.15,2013-04-28 09:01:00,
2013-04-28 04:02:00,51.7,41.5,30.07,SSW,198,7.0,12.0,68,0.00,,,0.00,0,Wunderground v.1.15,2013-04-28 09:02:00,
2013-04-28 04:05:00,51.5,41.3,30.07,SSE,168,5.0,12.0,68,0.00,,,0.00,0,Wunderground v.1.15,2013-04-28 09:05:00,
2013-04-28 04:06:00,51.5,41.3,30.06,SSW,198,8.0,12.0,68,0.00,,,0.00,0,Wunderground v.1.15,2013-04-28 09:06:00,
2013-04-28 04:07:00,51.5,41.3,30.07,South,188,5.0,12.0,68,0.00,,,0.00,0,Wunderground v.1.15,2013-04-28 09:07:00,
2013-04-28 04:10:00,51.4,41.2,30.07,SSW,195,3.0,6.0,68,0.00,,,0.00,0,Wunderground v.1.15,2013-04-28 09:10:00,
2013-04-28 04:11:00,51.4,41.2,30.07,South,182,8.0,8.0,68,0.00,,,0.00,0,Wunderground v.1.15,2013-04-28 09:11:00,
2013-04-28 04:12:00,51.4,41.2,30.06,South,180,8.0,8.0,68,0.00,,,0.00,0,Wunderground v.1.15,2013-04-28 09:12:00,
2013-04-28 04:15:00,51.3,41.1,30.07,South,191,8.0,12.0,68,0.00,,,0.00,0,Wunderground v.1.15,2013-04-28 09:15:00,
2013-04-28 04:16:00,51.2,41.0,30.07,SSW,199,8.0,12.0,68,0.00,,,0.00,0,Wunderground v.1.15,2013-04-28 09:16:00,
2013-04-28 04:17:00,51.2,41.0,30.07,SSW,195,3.0,14.0,68,0.00,,,0.00,0,Wunderground v.1.15,2013-04-28 09:17:00,
2013-04-28 04:18:00,51.2,41.0,30.07,SW,216,18.0,18.0,68,0.00,,,0.00,0,Wunderground v.1.15,2013-04-28 09:18:00,
2013-04-28 04:20:00,51.2,41.0,30.07,South,188,1.0,7.0,68,0.00,,,0.00,0,Wunderground v.1.15,2013-04-28 09:20:00,
2013-04-28 04:21:00,51.1,40.9,30.07,SSW,197,5.0,9.0,68,0.00,,,0.00,0,Wunderground v.1.15,2013-04-28 09:21:00,
2013-04-28 04:22:00,51.1,40.9,30.07,SSW,198,4.0,9.0,68,0.00,,,0.00,0,Wunderground v.1.15,2013-04-28 09:22:00,
2013-04-28 04:23:00,51.1,40.9,30.07,SSW,211,11.0,11.0,68,0.00,,,0.00,0,Wunderground v.1.15,2013-04-28 09:23:00,
2013-04-28 04:26:00,51.1,40.9,30.07,SW,215,10.0,16.0,68,0.00,,,0.00,0,Wunderground v.1.15,2013-04-28 09:26:00,
2013-04-28 04:27:00,51.1,40.9,30.07,South,176,8.0,16.0,68,0.00,,,0.00,0,Wunderground v.1.15,2013-04-28 09:27:00,
2013-04-28 04:28:00,51.2,41.0,30.07,SSE,162,4.0,16.0,68,0.00,,,0.00,0,Wunderground v.1.15,2013-04-28 09:28:00,
2013-04-28 04:29:00,51.2,41.0,30.07,SSW,208,6.0,16.0,68,0.00,,,0.00,0,Wunderground v.1.15,2013-04-28 09:29:00,
2013-04-28 04:31:00,51.1,40.9,30.07,South,173,2.0,7.0,68,0.00,,,0.00,0,Wunderground v.1.15,2013-04-28 09:31:00,
2013-04-28 04:32:00,51.1,40.9,30.07,South,180,6.0,7.0,68,0.00,,,0.00,0,Wunderground v.1.15,2013-04-28 09:32:00,
2013-04-28 04:33:00,51.0,40.8,30.07,South,187,8.0,8.0,68,0.00,,,0.00,0,Wunderground v.1.15,2013-04-28 09:33:00,
2013-04-28 04:34:00,51.0,40.8,30.07,South,173,5.0,10.0,68,0.00,,,0.00,0,Wunderground v.1.15,2013-04-28 09:34:00,
2013-04-28 04:36:00,50.9,40.7,30.07,South,173,0.0,10.0,68,0.00,,,0.00,0,Wunderground v.1.15,2013-04-28 09:36:00,
2013-04-28 04:37:00,50.8,40.6,30.07,South,170,8.0,10.0,68,0.00,,,0.00,0,Wunderground v.1.15,2013-04-28 09:37:00,
2013-04-28 04:39:00,50.7,40.9,30.06,SSE,167,4.0,10.0,69,0.00,,,0.00,0,Wunderground v.1.15,2013-04-28 09:39:00,
2013-04-28 04:42:00,50.6,40.8,30.07,SSE,168,5.0,6.0,69,0.00,,,0.00,0,Wunderground v.1.15,2013-04-28 09:42:00,
2013-04-28 04:43:00,50.6,40.8,30.07,South,170,5.0,10.0,69,0.00,,,0.00,0,Wunderground v.1.15,2013-04-28 09:43:00,
2013-04-28 04:44:00,50.5,40.7,30.06,South,183,4.0,11.0,69,0.00,,,0.00,0,Wunderground v.1.15,2013-04-28 09:44:00,
2013-04-28 04:47:00,50.4,41.0,30.06,South,184,0.0,11.0,70,0.00,,,0.00,0,Wunderground v.1.15,2013-04-28 09:47:00,
2013-04-28 04:49:00,50.4,41.0,30.06,South,185,7.0,12.0,70,0.00,,,0.00,0,Wunderground v.1.15,2013-04-28 09:49:00,
2013-04-28 04:52:00,50.3,40.9,30.06,SSW,208,6.0,12.0,70,0.00,,,0.00,0,Wunderground v.1.15,2013-04-28 09:52:00,
2013-04-28 04:53:00,50.3,40.9,30.06,SSW,203,5.0,12.0,70,0.00,,,0.00,0,Wunderground v.1.15,2013-04-28 09:53:00,
2013-04-28 04:54:00,50.3,40.9,30.06,South,182,6.0,13.0,70,0.00,,,0.00,0,Wunderground v.1.15,2013-04-28 09:54:00,
2013-04-28 04:55:00,50.3,40.9,30.06,SSW,205,2.0,13.0,70,0.00,,,0.00,0,Wunderground v.1.15,2013-04-28 09:55:00,
2013-04-28 04:57:00,50.3,40.9,30.06,South,176,4.0,13.0,70,0.00,,,0.00,0,Wunderground v.1.15,2013-04-28 09:57:00,
2013-04-28 04:58:00,50.3,40.9,30.07,SSW,203,4.0,13.0,70,0.00,,,0.00,0,Wunderground v.1.15,2013-04-28 09:58:00,
2013-04-28 04:59:00,50.2,40.8,30.06,SSW,199,8.0,13.0,70,0.00,,,0.00,0,Wunderground v.1.15,2013-04-28 09:59:00,
2013-04-28 05:00:00,50.2,40.8,30.06,South,171,6.0,7.0,70,0.00,,,0.00,0,Wunderground v.1.15,2013-04-28 10:00:00,
2013-04-28 05:03:00,50.2,40.8,30.06,SSW,201,4.0,8.0,70,0.00,,,0.00,0,Wunderground v.1.15,2013-04-28 10:03:00,
2013-04-28 05:04:00,50.2,40.8,30.07,SSW,212,9.0,14.0,70,0.00,,,0.00,0,Wunderground v.1.15,2013-04-28 10:04:00,
2013-04-28 05:05:00,50.2,40.8,30.06,SSW,205,2.0,14.0,70,0.00,,,0.00,0,Wunderground v.1.15,2013-04-28 10:05:00,
2013-04-28 05:08:00,50.1,40.7,30.06,SSE,167,4.0,14.0,70,0.00,,,0.00,0,Wunderground v.1.15,2013-04-28 10:08:00,
2013-04-28 05:09:00,50.1,40.7,30.06,South,172,5.0,14.0,70,0.00,,,0.00,0,Wunderground v.1.15,2013-04-28 10:09:00,
2013-04-28 05:10:00,50.1,41.1,30.06,South,173,1.0,1.0,71,0.00,,,0.00,0,Wunderground v.1.15,2013-04-28 10:10:00,
2013-04-28 05:11:00,50.1,40.7,30.06,South,170,4.0,6.0,70,0.00,,,0.00,0,Wunderground v.1.15,2013-04-28 10:11:00,
2013-04-28 05:13:00,50.0,40.6,30.06,SSE,168,8.0,10.0,70,0.00,,,0.00,0,Wunderground v.1.15,2013-04-28 10:13:00,
2013-04-28 05:14:00,50.0,41.0,30.06,South,188,6.0,10.0,71,0.00,,,0.00,0,Wunderground v.1.15,2013-04-28 10:14:00,
2013-04-28 05:15:00,50.0,41.0,30.06,SSW,210,6.0,10.0,71,0.00,,,0.00,0,Wunderground v.1.15,2013-04-28 10:15:00,
2013-04-28 05:16:00,50.0,40.6,30.06,SSW,197,13.0,13.0,70,0.00,,,0.00,0,Wunderground v.1.15,2013-04-28 10:16:00,
2013-04-28 05:19:00,50.0,41.0,30.06,SSW,193,2.0,13.0,71,0.00,,,0.00,0,Wunderground v.1.15,2013-04-28 10:19:00,
2013-04-28 05:20:00,50.0,41.0,30.06,South,179,4.0,13.0,71,0.00,,,0.00,0,Wunderground v.1.15,2013-04-28 10:20:00,
2013-04-28 05:21:00,50.0,41.0,30.06,South,174,0.0,13.0,71,0.00,,,0.00,0,Wunderground v.1.15,2013-04-28 10:21:00,
2013-04-28 05:22:00,50.0,41.0,30.06,South,182,7.0,13.0,71,0.00,,,0.00,0,Wunderground v.1.15,2013-04-28 10:22:00,
2013-04-28 05:24:00,50.0,41.0,30.06,SSW,211,6.0,13.0,71,0.00,,,0.00,0,Wunderground v.1.15,2013-04-28 10:24:00,
2013-04-28 05:26:00,50.0,41.0,30.06,SSW,203,12.0,13.0,71,0.00,,,0.00,0,Wunderground v.1.15,2013-04-28 10:26:00,
2013-04-28 05:27:00,50.0,41.0,30.06,SSW,196,8.0,13.0,71,0.00,,,0.00,0,Wunderground v.1.15,2013-04-28 10:27:00,
2013-04-28 05:29:00,50.0,41.0,30.06,South,190,3.0,13.0,71,0.00,,,0.00,0,Wunderground v.1.15,2013-04-28 10:29:00,
2013-04-28 05:30:00,50.0,41.0,30.05,SSW,206,8.0,13.0,71,0.00,,,0.00,0,Wunderground v.1.15,2013-04-28 10:30:00,
2013-04-28 05:31:00,50.0,41.0,30.05,South,173,6.0,10.0,71,0.00,,,0.00,0,Wunderground v.1.15,2013-04-28 10:31:00,
2013-04-28 05:32:00,50.0,41.0,30.06,South,191,4.0,11.0,71,0.00,,,0.00,0,Wunderground v.1.15,2013-04-28 10:32:00,
2013-04-28 05:35:00,49.9,41.2,30.06,South,190,6.0,12.0,72,0.00,,,0.00,0,Wunderground v.1.15,2013-04-28 10:35:00,
2013-04-28 05:36:00,49.9,40.9,30.06,SSE,161,11.0,12.0,71,0.00,,,0.00,0,Wunderground v.1.15,2013-04-28 10:36:00,
2013-04-28 05:37:00,49.9,40.9,30.06,SW,216,12.0,12.0,71,0.00,,,0.00,0,Wunderground v.1.15,2013-04-28 10:37:00,
2013-04-28 05:40:00,49.9,40.9,30.06,SSW,195,9.0,9.0,71,0.00,,,0.00,0,Wunderground v.1.15,2013-04-28 10:40:00,
2013-04-28 05:41:00,49.9,41.2,30.06,South,175,3.0,11.0,72,0.00,,,0.00,0,Wunderground v.1.15,2013-04-28 10:41:00,
2013-04-28 05:42:00,49.9,41.2,30.06,South,170,5.0,11.0,72,0.00,,,0.00,0,Wunderground v.1.15,2013-04-28 10:42:00,
2013-04-28 05:43:00,49.9,41.2,30.06,South,182,2.0,11.0,72,0.00,,,0.00,0,Wunderground v.1.15,2013-04-28 10:43:00,
2013-04-28 05:45:00,49.8,41.1,30.06,SE,143,3.0,11.0,72,0.00,,,0.00,0,Wunderground v.1.15,2013-04-28 10:45:00,
2013-04-28 05:46:00,49.8,41.1,30.06,South,186,3.0,11.0,72,0.00,,,0.00,0,Wunderground v.1.15,2013-04-28 10:46:00,
2013-04-28 05:47:00,49.8,41.1,30.06,South,189,6.0,11.0,72,0.00,,,0.00,0,Wunderground v.1.15,2013-04-28 10:47:00,
2013-04-28 05:48:00,49.8,41.1,30.06,SSE,165,6.0,11.0,72,0.00,,,0.00,0,Wunderground v.1.15,2013-04-28 10:48:00,
2013-04-28 05:50:00,49.8,41.1,30.06,SSE,168,4.0,4.0,72,0.00,,,0.00,0,Wunderground v.1.15,2013-04-28 10:50:00,
2013-04-28 05:52:00,49.7,41.0,30.06,South,173,1.0,7.0,72,0.00,,,0.00,0,Wunderground v.1.15,2013-04-28 10:52:00,
2013-04-28 05:53:00,49.7,41.0,30.06,South,189,2.0,10.0,72,0.00,,,0.00,0,Wunderground v.1.15,2013-04-28 10:53:00,
2013-04-28 05:55:00,49.6,40.9,30.06,SSW,199,3.0,10.0,72,0.00,,,0.00,0,Wunderground v.1.15,2013-04-28 10:55:00,
2013-04-28 05:57:00,49.6,40.9,30.06,SSW,193,4.0,10.0,72,0.00,,,0.00,0,Wunderground v.1.15,2013-04-28 10:57:00,
2013-04-28 05:58:00,49.6,40.9,30.06,SSW,209,4.0,10.0,72,0.00,,,0.00,0,Wunderground v.1.15,2013-04-28 10:58:00,
2013-04-28 06:01:00,49.6,41.3,30.06,South,174,3.0,6.0,73,0.00,,,0.00,0,Wunderground v.1.15,2013-04-28 11:01:00,
2013-04-28 06:02:00,49.6,41.3,30.06,SSW,206,9.0,11.0,73,0.00,,,0.00,0,Wunderground v.1.15,2013-04-28 11:02:00,
2013-04-28 06:03:00,49.6,41.3,30.05,South,183,3.0,11.0,73,0.00,,,0.00,0,Wunderground v.1.15,2013-04-28 11:03:00,
2013-04-28 06:06:00,49.6,41.3,30.06,SSW,200,6.0,11.0,73,0.00,,,0.00,0,Wunderground v.1.15,2013-04-28 11:06:00,
2013-04-28 06:07:00,49.6,41.3,30.06,South,184,3.0,11.0,73,0.00,,,0.00,0,Wunderground v.1.15,2013-04-28 11:07:00,
2013-04-28 06:09:00,49.6,41.3,30.06,SSE,160,5.0,11.0,73,0.00,,,0.00,0,Wunderground v.1.15,2013-04-28 11:09:00,
2013-04-28 06:11:00,49.6,41.3,30.06,South,182,3.0,7.0,73,0.00,,,0.00,0,Wunderground v.1.15,2013-04-28 11:11:00,
2013-04-28 06:12:00,49.6,41.3,30.06,South,182,0.0,7.0,73,0.00,,,0.00,0,Wunderground v.1.15,2013-04-28 11:12:00,
2013-04-28 06:13:00,49.6,41.3,30.06,South,174,4.0,12.0,73,0.00,,,0.00,0,Wunderground v.1.15,2013-04-28 11:13:00,
2013-04-28 06:14:00,49.5,41.2,30.05,SSW,192,7.0,12.0,73,0.00,,,0.00,0,Wunderground v.1.15,2013-04-28 11:14:00,
2013-04-28 06:16:00,49.6,41.3,30.05,South,180,2.0,12.0,73,0.00,,,0.00,0,Wunderground v.1.15,2013-04-28 11:16:00,
2013-04-28 06:17:00,49.5,41.2,30.05,South,181,4.0,12.0,73,0.00,,,0.00,0,Wunderground v.1.15,2013-04-28 11:17:00,
2013-04-28 06:18:00,49.5,41.2,30.05,SE,142,3.0,12.0,73,0.00,,,0.00,0,Wunderground v.1.15,2013-04-28 11:18:00,
2013-04-28 06:19:00,49.5,41.2,30.05,SE,144,3.0,12.0,73,0.00,,,0.00,0,Wunderground v.1.15,2013-04-28 11:19:00,
2013-04-28 06:22:00,49.5,41.2,30.05,South,173,1.0,11.0,73,0.00,,,0.00,0,Wunderground v.1.15,2013-04-28 11:22:00,
2013-04-28 06:23:00,49.5,41.2,30.05,SSW,201,4.0,11.0,73,0.00,,,0.00,0,Wunderground v.1.15,2013-04-28 11:23:00,
2013-04-28 06:24:00,49.5,41.6,30.05,South,187,1.0,11.0,74,0.00,,,0.00,0,Wunderground v.1.15,2013-04-28 11:24:00,
2013-04-28 06:27:00,49.5,41.2,30.04,SSE,168,7.0,11.0,73,0.00,,,0.00,0,Wunderground v.1.15,2013-04-28 11:27:00,
2013-04-28 06:28:00,49.5,41.6,30.04,South,171,4.0,11.0,74,0.00,,,0.00,0,Wunderground v.1.15,2013-04-28 11:28:00,
2013-04-28 06:29:00,49.5,41.6,30.04,SSE,166,4.0,11.0,74,0.00,,,0.00,0,Wunderground v.1.15,2013-04-28 11:29:00,
2013-04-28 06:30:00,49.5,41.6,30.04,SSE,167,2.0,11.0,74,0.00,,,0.00,0,Wunderground v.1.15,2013-04-28 11:30:00,
2013-04-28 06:32:00,49.4,41.5,30.05,SSE,168,5.0,9.0,74,0.00,,,0.00,0,Wunderground v.1.15,2013-04-28 11:32:00,
2013-04-28 06:33:00,49.4,41.5,30.04,South,186,6.0,9.0,74,0.00,,,0.00,0,Wunderground v.1.15,2013-04-28 11:33:00,
2013-04-28 06:34:00,49.4,41.1,30.04,South,188,5.0,9.0,73,0.00,,,0.00,0,Wunderground v.1.15,2013-04-28 11:34:00,
2013-04-28 06:35:00,49.4,41.5,30.04,South,189,4.0,9.0,74,0.00,,,0.00,0,Wunderground v.1.15,2013-04-28 11:35:00,
2013-04-28 06:37:00,49.4,41.5,30.04,SSE,168,9.0,12.0,74,0.00,,,0.00,0,Wunderground v.1.15,2013-04-28 11:37:00,
2013-04-28 06:39:00,49.4,41.5,30.04,SSE,155,5.0,13.0,74,0.00,,,0.00,0,Wunderground v.1.15,2013-04-28 11:39:00,
2013-04-28 06:40:00,49.5,41.2,30.04,SSE,155,2.0,13.0,73,0.00,,,0.00,0,Wunderground v.1.15,2013-04-28 11:40:00,
2013-04-28 06:42:00,49.5,41.6,30.04,South,182,4.0,9.0,74,0.00,,,0.00,0,Wunderground v.1.15,2013-04-28 11:42:00,
2013-04-28 06:44:00,49.5,41.6,30.04,South,185,7.0,9.0,74,0.00,,,0.00,0,Wunderground v.1.15,2013-04-28 11:44:00,
2013-04-28 06:45:00,49.5,41.6,30.04,SSW,199,7.0,9.0,74,0.00,,,0.00,0,Wunderground v.1.15,2013-04-28 11:45:00,
2013-04-28 06:47:00,49.6,41.7,30.04,SSE,162,4.0,9.0,74,0.00,,,0.00,0,Wunderground v.1.15,2013-04-28 11:47:00,
2013-04-28 06:48:00,49.6,41.7,30.04,SSE,161,4.0,9.0,74,0.00,,,0.00,0,Wunderground v.1.15,2013-04-28 11:48:00,
2013-04-28 06:49:00,49.6,41.7,30.04,SW,214,8.0,13.0,74,0.00,,,0.00,0,Wunderground v.1.15,2013-04-28 11:49:00,
2013-04-28 06:50:00,49.7,41.7,30.03,SSW,210,6.0,6.0,74,0.00,,,0.00,0,Wunderground v.1.15,2013-04-28 11:50:00,
2013-04-28 06:51:00,49.6,41.7,30.03,South,170,7.0,7.0,74,0.00,,,0.00,0,Wunderground v.1.15,2013-04-28 11:51:00,
2013-04-28 06:52:00,49.7,41.7,30.04,South,179,3.0,12.0,74,0.00,,,0.00,0,Wunderground v.1.15,2013-04-28 11:52:00,
2013-04-28 06:53:00,49.7,41.7,30.04,South,179,2.0,12.0,74,0.00,,,0.00,0,Wunderground v.1.15,2013-04-28 11:53:00,
2013-04-28 06:54:00,49.8,41.8,30.04,South,178,7.0,12.0,74,0.00,,,0.00,0,Wunderground v.1.15,2013-04-28 11:54:00,
2013-04-28 06:55:00,49.8,41.8,30.04,SSW,203,9.0,12.0,74,0.00,,,0.00,0,Wunderground v.1.15,2013-04-28 11:55:00,
2013-04-28 06:56:00,49.9,41.9,30.03,SSW,196,4.0,12.0,74,0.00,,,0.00,0,Wunderground v.1.15,2013-04-28 11:56:00,
2013-04-28 06:57:00,50.0,42.0,30.04,SSW,196,2.0,12.0,74,0.00,,,0.00,0,Wunderground v.1.15,2013-04-28 11:57:00,
2013-04-28 06:58:00,50.0,42.0,30.03,SSW,196,4.0,12.0,74,0.00,,,0.00,0,Wunderground v.1.15,2013-04-28 11:58:00,
2013-04-28 06:59:00,50.0,42.0,30.04,SSE,168,9.0,12.0,74,0.00,,,0.00,0,Wunderground v.1.15,2013-04-28 11:59:00,
2013-04-28 07:01:00,50.1,42.1,30.04,South,169,6.0,6.0,74,0.00,,,0.00,0,Wunderground v.1.15,2013-04-28 12:01:00,
2013-04-28 07:02:00,50.2,41.9,30.04,SSW,201,6.0,9.0,73,0.00,,,0.00,0,Wunderground v.1.15,2013-04-28 12:02:00,
2013-04-28 07:03:00,50.2,41.9,30.04,South,190,4.0,9.0,73,0.00,,,0.00,0,Wunderground v.1.15,2013-04-28 12:03:00,
2013-04-28 07:05:00,50.4,42.1,30.04,SSE,166,7.0,9.0,73,0.00,,,0.00,0,Wunderground v.1.15,2013-04-28 12:05:00,
2013-04-28 07:06:00,50.4,42.1,30.04,South,173,6.0,9.0,73,0.00,,,0.00,0,Wunderground v.1.15,2013-04-28 12:06:00,
2013-04-28 07:07:00,50.5,42.2,30.05,South,191,5.0,9.0,73,0.00,,,0.00,0,Wunderground v.1.15,2013-04-28 12:07:00,
2013-04-28 07:08:00,50.5,42.2,30.04,SSW,195,5.0,9.0,73,0.00,,,0.00,0,Wunderground v.1.15,2013-04-28 12:08:00,
2013-04-28 07:10:00,50.6,42.3,30.04,SE,135,5.0,6.0,73,0.00,,,0.00,0,Wunderground v.1.15,2013-04-28 12:10:00,
2013-04-28 07:11:00,50.6,42.3,30.04,SSW,205,13.0,13.0,73,0.00,,,0.00,0,Wunderground v.1.15,2013-04-28 12:11:00,
2013-04-28 07:12:00,50.7,42.4,30.04,South,175,9.0,14.0,73,0.00,,,0.00,0,Wunderground v.1.15,2013-04-28 12:12:00,
2013-04-28 07:13:00,50.7,42.0,30.04,SSW,211,4.0,14.0,72,0.00,,,0.00,0,Wunderground v.1.15,2013-04-28 12:13:00,
2013-04-28 07:14:00,50.7,42.0,30.03,SSW,200,5.0,14.0,72,0.00,,,0.00,0,Wunderground v.1.15,2013-04-28 12:14:00,
2013-04-28 07:15:00,50.8,42.1,30.04,SSW,195,4.0,14.0,72,0.00,,,0.00,0,Wunderground v.1.15,2013-04-28 12:15:00,
2013-04-28 07:16:00,50.8,42.1,30.04,SSW,195,5.0,14.0,72,0.00,,,0.00,0,Wunderground v.1.15,2013-04-28 12:16:00,
2013-04-28 07:17:00,50.9,42.2,30.04,SSW,198,3.0,14.0,72,0.00,,,0.00,0,Wunderground v.1.15,2013-04-28 12:17:00,
2013-04-28 07:18:00,50.9,42.2,30.04,South,177,9.0,14.0,72,0.00,,,0.00,0,Wunderground v.1.15,2013-04-28 12:18:00,
2013-04-28 07:19:00,50.9,42.2,30.04,SW,219,8.0,14.0,72,0.00,,,0.00,0,Wunderground v.1.15,2013-04-28 12:19:00,
2013-04-28 07:20:00,51.0,42.3,30.04,SSW,193,4.0,7.0,72,0.00,,,0.00,0,Wunderground v.1.15,2013-04-28 12:20:00,
2013-04-28 07:22:00,51.1,42.4,30.04,South,175,1.0,7.0,72,0.00,,,0.00,0,Wunderground v.1.15,2013-04-28 12:22:00,
2013-04-28 07:24:00,51.1,42.4,30.03,SSW,193,4.0,11.0,72,0.00,,,0.00,0,Wunderground v.1.15,2013-04-28 12:24:00,
2013-04-28 07:25:00,51.2,42.5,30.03,South,187,5.0,11.0,72,0.00,,,0.00,0,Wunderground v.1.15,2013-04-28 12:25:00,
2013-04-28 07:27:00,51.3,42.6,30.03,South,188,5.0,11.0,72,0.00,,,0.00,0,Wunderground v.1.15,2013-04-28 12:27:00,
2013-04-28 07:28:00,51.3,42.6,30.04,SSE,168,5.0,11.0,72,0.00,,,0.00,0,Wunderground v.1.15,2013-04-28 12:28:00,
2013-04-28 07:29:00,51.4,42.7,30.03,South,173,6.0,11.0,72,0.00,,,0.00,0,Wunderground v.1.15,2013-04-28 12:29:00,
2013-04-28 07:30:00,51.4,42.3,30.03,South,171,4.0,11.0,71,0.00,,,0.00,0,Wunderground v.1.15,2013-04-28 12:30:00,
2013-04-28 07:32:00,51.5,42.8,30.03,South,173,1.0,8.0,72,0.00,,,0.00,0,Wunderground v.1.15,2013-04-28 12:32:00,
2013-04-28 07:33:00,51.6,42.9,30.02,SSW,207,6.0,10.0,72,0.00,,,0.00,0,Wunderground v.1.15,2013-04-28 12:33:00,
2013-04-28 07:34:00,51.6,42.9,30.02,SSE,161,6.0,10.0,72,0.00,,,0.00,0,Wunderground v.1.15,2013-04-28 12:34:00,
2013-04-28 07:35:00,51.6,42.9,30.03,SSE,168,6.0,14.0,72,0.00,,,0.00,0,Wunderground v.1.15,2013-04-28 12:35:00,
2013-04-28 07:37:00,51.8,42.7,30.02,SSE,161,5.0,20.0,71,0.00,,,0.00,0,Wunderground v.1.15,2013-04-28 12:37:00,
2013-04-28 07:38:00,51.8,42.7,30.03,SSE,162,3.0,20.0,71,0.00,,,0.00,0,Wunderground v.1.15,2013-04-28 12:38:00,
2013-04-28 07:39:00,51.8,42.7,30.02,SSW,207,9.0,20.0,71,0.00,,,0.00,0,Wunderground v.1.15,2013-04-28 12:39:00,
2013-04-28 07:40:00,51.9,42.8,30.03,SSW,211,10.0,10.0,71,0.00,,,0.00,0,Wunderground v.1.15,2013-04-28 12:40:00,
2013-04-28 07:43:00,52.0,42.9,30.02,SSE,166,8.0,13.0,71,0.00,,,0.00,0,Wunderground v.1.15,2013-04-28 12:43:00,
2013-04-28 07:44:00,52.1,43.0,30.02,SSE,164,7.0,13.0,71,0.00,,,0.00,0,Wunderground v.1.15,2013-04-28 12:44:00,
2013-04-28 07:46:00,52.2,42.7,30.03,South,176,11.0,13.0,70,0.00,,,0.00,0,Wunderground v.1.15,2013-04-28 12:46:00,
2013-04-28 07:48:00,52.3,42.8,30.02,SSE,165,6.0,13.0,70,0.00,,,0.00,0,Wunderground v.1.15,2013-04-28 12:48:00,
2013-04-28 07:49:00,52.4,42.9,30.02,SSE,159,9.0,13.0,70,0.00,,,0.00,0,Wunderground v.1.15,2013-04-28 12:49:00,
2013-04-28 07:51:00,52.5,43.0,30.03,SE,145,5.0,9.0,70,0.00,,,0.00,0,Wunderground v.1.15,2013-04-28 12:51:00,
2013-04-28 07:52:00,52.5,43.0,30.02,SE,146,4.0,9.0,70,0.00,,,0.00,0,Wunderground v.1.15,2013-04-28 12:52:00,
2013-04-28 07:53:00,52.6,43.1,30.02,South,172,6.0,10.0,70,0.00,,,0.00,0,Wunderground v.1.15,2013-04-28 12:53:00,
2013-04-28 07:54:00,52.7,43.2,30.02,SSE,165,6.0,16.0,70,0.00,,,0.00,0,Wunderground v.1.15,2013-04-28 12:54:00,
2013-04-28 07:56:00,52.8,43.3,30.02,SSE,155,6.0,16.0,70,0.00,,,0.00,0,Wunderground v.1.15,2013-04-28 12:56:00,
2013-04-28 07:57:00,52.8,43.3,30.02,SSE,157,4.0,16.0,70,0.00,,,0.00,0,Wunderground v.1.15,2013-04-28 12:57:00,
2013-04-28 07:58:00,52.9,43.0,30.02,South,174,7.0,16.0,69,0.00,,,0.00,0,Wunderground v.1.15,2013-04-28 12:58:00,
2013-04-28 07:59:00,52.9,43.0,30.02,South,178,6.0,16.0,69,0.00,,,0.00,0,Wunderground v.1.15,2013-04-28 12:59:00,
2013-04-28 08:01:00,53.1,43.2,30.02,SSE,164,9.0,10.0,69,0.00,,,0.00,0,Wunderground v.1.15,2013-04-28 13:01:00,
2013-04-28 08:02:00,53.1,42.8,30.02,South,175,12.0,14.0,68,0.00,,,0.00,0,Wunderground v.1.15,2013-04-28 13:02:00,
2013-04-28 08:03:00,53.2,43.3,30.02,South,173,3.0,14.0,69,0.00,,,0.00,0,Wunderground v.1.15,2013-04-28 13:03:00,
2013-04-28 08:04:00,53.2,42.9,30.02,South,182,10.0,14.0,68,0.00,,,0.00,0,Wunderground v.1.15,2013-04-28 13:04:00,
2013-04-28 08:05:00,53.2,42.9,30.02,SSW,196,7.0,14.0,68,0.00,,,0.00,0,Wunderground v.1.15,2013-04-28 13:05:00,
2013-04-28 08:06:00,53.3,43.0,30.02,SSW,212,8.0,14.0,68,0.00,,,0.00,0,Wunderground v.1.15,2013-04-28 13:06:00,
2013-04-28 08:07:00,53.3,43.0,30.02,South,190,5.0,14.0,68,0.00,,,0.00,0,Wunderground v.1.15,2013-04-28 13:07:00,
2013-04-28 08:08:00,53.4,43.1,30.02,South,179,6.0,14.0,68,0.00,,,0.00,0,Wunderground v.1.15,2013-04-28 13:08:00,
2013-04-28 08:10:00,53.5,43.2,30.02,SSW,200,9.0,14.0,68,0.00,,,0.00,0,Wunderground v.1.15,2013-04-28 13:10:00,
2013-04-28 08:11:00,53.6,43.3,30.03,SSW,192,4.0,6.0,68,0.00,,,0.00,0,Wunderground v.1.15,2013-04-28 13:11:00,
2013-04-28 08:12:00,53.7,43.4,30.03,South,172,4.0,7.0,68,0.00,,,0.00,0,Wunderground v.1.15,2013-04-28 13:12:00,
2013-04-28 08:14:00,53.8,43.5,30.02,SSW,207,5.0,8.0,68,0.00,,,0.00,0,Wunderground v.1.15,2013-04-28 13:14:00,
2013-04-28 08:15:00,53.8,43.5,30.03,South,180,3.0,8.0,68,0.00,,,0.00,0,Wunderground v.1.15,2013-04-28 13:15:00,
2013-04-28 08:17:00,53.9,43.2,30.03,SSW,209,6.0,10.0,67,0.00,,,0.00,0,Wunderground v.1.15,2013-04-28 13:17:00,
2013-04-28 08:18:00,54.0,43.3,30.02,South,176,4.0,10.0,67,0.00,,,0.00,0,Wunderground v.1.15,2013-04-28 13:18:00,
2013-04-28 08:19:00,54.0,43.3,30.02,SSW,201,11.0,11.0,67,0.00,,,0.00,0,Wunderground v.1.15,2013-04-28 13:19:00,
2013-04-28 08:20:00,54.1,43.4,30.02,South,171,6.0,6.0,67,0.00,,,0.00,0,Wunderground v.1.15,2013-04-28 13:20:00,
2013-04-28 08:22:00,54.2,43.5,30.02,South,171,3.0,9.0,67,0.00,,,0.00,0,Wunderground v.1.15,2013-04-28 13:22:00,
2013-04-28 08:23:00,54.4,43.7,30.02,SSW,213,2.0,10.0,67,0.00,,,0.00,0,Wunderground v.1.15,2013-04-28 13:23:00,
2013-04-28 08:24:00,54.4,43.7,30.03,SSW,213,1.0,10.0,67,0.00,,,0.00,0,Wunderground v.1.15,2013-04-28 13:24:00,
2013-04-28 08:25:00,54.6,43.9,30.03,South,173,7.0,10.0,67,0.00,,,0.00,0,Wunderground v.1.15,2013-04-28 13:25:00,
2013-04-28 08:26:00,54.6,43.5,30.03,South,170,2.0,10.0,66,0.00,,,0.00,0,Wunderground v.1.15,2013-04-28 13:26:00,
2013-04-28 08:27:00,54.8,43.7,30.02,SSE,166,9.0,12.0,66,0.00,,,0.00,0,Wunderground v.1.15,2013-04-28 13:27:00,
2013-04-28 08:29:00,55.0,43.4,30.02,SSE,154,2.0,14.0,65,0.00,,,0.00,0,Wunderground v.1.15,2013-04-28 13:29:00,
2013-04-28 08:30:00,55.1,43.9,30.02,SSE,155,7.0,14.0,66,0.00,,,0.00,0,Wunderground v.1.15,2013-04-28 13:30:00,
2013-04-28 08:31:00,55.2,44.0,30.02,SSE,156,8.0,8.0,66,0.00,,,0.00,0,Wunderground v.1.15,2013-04-28 13:31:00,
2013-04-28 08:32:00,55.4,43.8,30.02,SSW,195,10.0,15.0,65,0.00,,,0.00,0,Wunderground v.1.15,2013-04-28 13:32:00,
2013-04-28 08:34:00,55.5,43.9,30.02,SSE,166,10.0,15.0,65,0.00,,,0.00,0,Wunderground v.1.15,2013-04-28 13:34:00,
2013-04-28 08:35:00,55.6,43.6,30.02,South,170,9.0,15.0,64,0.00,,,0.00,0,Wunderground v.1.15,2013-04-28 13:35:00,
2013-04-28 08:36:00,55.7,43.7,30.02,SW,215,2.0,15.0,64,0.00,,,0.00,0,Wunderground v.1.15,2013-04-28 13:36:00,
2013-04-28 08:37:00,55.7,43.7,30.02,SSE,154,8.0,15.0,64,0.00,,,0.00,0,Wunderground v.1.15,2013-04-28 13:37:00,
2013-04-28 08:39:00,55.9,43.5,30.02,SE,143,11.0,16.0,63,0.00,,,0.00,0,Wunderground v.1.15,2013-04-28 13:39:00,
2013-04-28 08:40:00,55.9,43.5,30.02,SSE,155,10.0,15.0,63,0.00,,,0.00,0,Wunderground v.1.15,2013-04-28 13:40:00,
2013-04-28 08:41:00,56.0,43.6,30.02,South,191,12.0,15.0,63,0.00,,,0.00,0,Wunderground v.1.15,2013-04-28 13:41:00,
2013-04-28 08:43:00,56.1,43.7,30.02,South,169,12.0,15.0,63,0.00,,,0.00,0,Wunderground v.1.15,2013-04-28 13:43:00,
2013-04-28 08:45:00,56.3,43.9,30.02,SSW,200,5.0,16.0,63,0.00,,,0.00,0,Wunderground v.1.15,2013-04-28 13:45:00,
2013-04-28 08:46:00,56.4,44.0,30.02,SSE,151,6.0,16.0,63,0.00,,,0.00,0,Wunderground v.1.15,2013-04-28 13:46:00,
2013-04-28 08:48:00,56.6,43.7,30.02,South,176,10.0,16.0,62,0.00,,,0.00,0,Wunderground v.1.15,2013-04-28 13:48:00,
2013-04-28 08:50:00,56.8,43.9,30.02,SSE,168,8.0,8.0,62,0.00,,,0.00,0,Wunderground v.1.15,2013-04-28 13:50:00,
2013-04-28 08:51:00,56.9,44.0,30.02,SSW,212,10.0,11.0,62,0.00,,,0.00,0,Wunderground v.1.15,2013-04-28 13:51:00,
2013-04-28 08:52:00,57.0,43.7,30.02,South,174,4.0,11.0,61,0.00,,,0.00,0,Wunderground v.1.15,2013-04-28 13:52:00,
2013-04-28 08:53:00,57.1,43.8,30.02,SSW,212,8.0,11.0,61,0.00,,,0.00,0,Wunderground v.1.15,2013-04-28 13:53:00,
2013-04-28 08:56:00,57.2,43.9,30.01,SSE,168,7.0,13.0,61,0.00,,,0.00,0,Wunderground v.1.15,2013-04-28 13:56:00,
2013-04-28 08:57:00,57.3,44.0,30.02,SE,145,11.0,14.0,61,0.00,,,0.00,0,Wunderground v.1.15,2013-04-28 13:57:00,
2013-04-28 08:58:00,57.2,43.9,30.02,SE,145,6.0,15.0,61,0.00,,,0.00,0,Wunderground v.1.15,2013-04-28 13:58:00,
2013-04-28 09:01:00,57.2,43.4,30.02,South,180,4.0,11.0,60,0.00,,,0.00,0,Wunderground v.1.15,2013-04-28 14:01:00,
2013-04-28 09:02:00,57.2,43.4,30.02,SSW,208,3.0,11.0,60,0.00,,,0.00,0,Wunderground v.1.15,2013-04-28 14:02:00,
2013-04-28 09:03:00,57.2,43.4,30.02,SSE,153,9.0,11.0,60,0.00,,,0.00,0,Wunderground v.1.15,2013-04-28 14:03:00,
2013-04-28 09:06:00,57.2,43.4,30.02,South,180,3.0,11.0,60,0.00,,,0.00,0,Wunderground v.1.15,2013-04-28 14:06:00,
2013-04-28 09:07:00,57.2,43.4,30.01,SSW,194,9.0,11.0,60,0.00,,,0.00,0,Wunderground v.1.15,2013-04-28 14:07:00,
2013-04-28 09:09:00,57.2,43.4,30.02,SSE,166,6.0,13.0,60,0.00,,,0.00,0,Wunderground v.1.15,2013-04-28 14:09:00,
2013-04-28 09:11:00,57.3,43.5,30.01,South,186,4.0,12.0,60,0.00,,,0.00,0,Wunderground v.1.15,2013-04-28 14:11:00,
2013-04-28 09:12:00,57.3,43.5,30.01,South,175,6.0,12.0,60,0.00,,,0.00,0,Wunderground v.1.15,2013-04-28 14:12:00,
2013-04-28 09:15:00,57.7,43.9,30.01,SSE,163,7.0,15.0,60,0.00,,,0.00,0,Wunderground v.1.15,2013-04-28 14:15:00,
2013-04-28 09:16:00,57.8,43.6,30.01,SSE,152,7.0,15.0,59,0.00,,,0.00,0,Wunderground v.1.15,2013-04-28 14:16:00,
2013-04-28 09:17:00,57.9,43.7,30.01,SSW,205,9.0,15.0,59,0.00,,,0.00,0,Wunderground v.1.15,2013-04-28 14:17:00,
2013-04-28 09:18:00,58.0,43.7,30.01,SSE,162,7.0,15.0,59,0.00,,,0.00,0,Wunderground v.1.15,2013-04-28 14:18:00,
2013-04-28 09:20:00,58.3,44.0,30.00,South,183,4.0,12.0,59,0.00,,,0.00,0,Wunderground v.1.15,2013-04-28 14:20:00,
2013-04-28 09:21:00,58.5,44.2,30.00,South,177,8.0,12.0,59,0.00,,,0.00,0,Wunderground v.1.15,2013-04-28 14:21:00,
2013-04-28 09:22:00,58.6,43.9,30.00,SSE,157,7.0,13.0,58,0.00,,,0.00,0,Wunderground v.1.15,2013-04-28 14:22:00,
2013-04-28 09:23:00,58.7,44.0,30.01,SSE,167,6.0,13.0,58,0.00,,,0.00,0,Wunderground v.1.15,2013-04-28 14:23:00,
2013-04-28 09:25:00,58.9,43.7,30.00,South,185,6.0,18.0,57,0.00,,,0.00,0,Wunderground v.1.15,2013-04-28 14:25:00,
2013-04-28 09:26:00,59.0,43.8,30.00,SSE,149,11.0,18.0,57,0.00,,,0.00,0,Wunderground v.1.15,2013-04-28 14:26:00,
2013-04-28 09:27:00,59.0,43.8,30.00,SSE,157,10.0,18.0,57,0.00,,,0.00,0,Wunderground v.1.15,2013-04-28 14:27:00,
2013-04-28 09:28:00,59.0,43.8,30.00,SE,137,13.0,18.0,57,0.00,,,0.00,0,Wunderground v.1.15,2013-04-28 14:28:00,
2013-04-28 09:30:00,59.0,43.8,30.00,SSE,160,5.0,7.0,57,0.00,,,0.00,0,Wunderground v.1.15,2013-04-28 14:30:00,
2013-04-28 09:31:00,59.1,43.9,30.00,SSW,200,4.0,9.0,57,0.00,,,0.00,0,Wunderground v.1.15,2013-04-28 14:31:00,
2013-04-28 09:33:00,59.3,44.1,30.00,SSW,209,7.0,9.0,57,0.00,,,0.00,0,Wunderground v.1.15,2013-04-28 14:33:00,
2013-04-28 09:34:00,59.3,43.6,30.00,SSW,197,4.0,9.0,56,0.00,,,0.00,0,Wunderground v.1.15,2013-04-28 14:34:00,
2013-04-28 09:36:00,59.5,43.8,30.00,SSW,202,11.0,15.0,56,0.00,,,0.00,0,Wunderground v.1.15,2013-04-28 14:36:00,
2013-04-28 09:37:00,59.5,43.8,30.00,South,188,6.0,15.0,56,0.00,,,0.00,0,Wunderground v.1.15,2013-04-28 14:37:00,
2013-04-28 09:38:00,59.6,43.9,30.00,SE,144,8.0,15.0,56,0.00,,,0.00,0,Wunderground v.1.15,2013-04-28 14:38:00,
2013-04-28 09:39:00,59.6,43.9,30.00,SSE,156,6.0,15.0,56,0.00,,,0.00,0,Wunderground v.1.15,2013-04-28 14:39:00,
2013-04-28 09:41:00,59.6,43.4,30.00,SSE,166,12.0,17.0,55,0.00,,,0.00,0,Wunderground v.1.15,2013-04-28 14:41:00,
2013-04-28 09:42:00,59.6,43.4,30.00,SSE,165,6.0,17.0,55,0.00,,,0.00,0,Wunderground v.1.15,2013-04-28 14:42:00,
2013-04-28 09:43:00,59.5,43.3,30.00,SW,222,11.0,17.0,55,0.00,,,0.00,0,Wunderground v.1.15,2013-04-28 14:43:00,
2013-04-28 09:44:00,59.5,43.3,30.00,SSW,211,6.0,17.0,55,0.00,,,0.00,0,Wunderground v.1.15,2013-04-28 14:44:00,
2013-04-28 09:46:00,59.7,43.5,30.00,South,174,11.0,17.0,55,0.00,,,0.00,0,Wunderground v.1.15,2013-04-28 14:46:00,
2013-04-28 09:47:00,59.7,43.5,30.00,South,175,1.0,17.0,55,0.00,,,0.00,0,Wunderground v.1.15,2013-04-28 14:47:00,
2013-04-28 09:48:00,59.8,43.6,29.99,South,180,13.0,18.0,55,0.00,,,0.00,0,Wunderground v.1.15,2013-04-28 14:48:00,
2013-04-28 09:49:00,59.9,43.7,30.00,South,173,6.0,18.0,55,0.00,,,0.00,0,Wunderground v.1.15,2013-04-28 14:49:00,
2013-04-28 09:52:00,60.1,43.4,29.99,SSE,166,12.0,16.0,54,0.00,,,0.00,0,Wunderground v.1.15,2013-04-28 14:52:00,
2013-04-28 09:53:00,60.2,43.5,29.99,SSE,160,6.0,16.0,54,0.00,,,0.00,0,Wunderground v.1.15,2013-04-28 14:53:00,
2013-04-28 09:54:00,60.2,43.5,29.99,SSW,196,10.0,16.0,54,0.00,,,0.00,0,Wunderground v.1.15,2013-04-28 14:54:00,
2013-04-28 09:57:00,60.5,43.8,29.99,South,172,12.0,16.0,54,0.00,,,0.00,0,Wunderground v.1.15,2013-04-28 14:57:00,
2013-04-28 09:58:00,60.6,43.9,29.99,SSE,162,9.0,16.0,54,0.00,,,0.00,0,Wunderground v.1.15,2013-04-28 14:58:00,
2013-04-28 09:59:00,60.6,43.4,29.99,South,178,6.0,16.0,53,0.00,,,0.00,0,Wunderground v.1.15,2013-04-28 14:59:00,
2013-04-28 10:00:00,60.7,43.5,29.99,SSW,198,9.0,16.0,53,0.00,,,0.00,0,Wunderground v.1.15,2013-04-28 15:00:00,
2013-04-28 10:02:00,60.8,43.6,29.99,SSW,205,11.0,15.0,53,0.00,,,0.00,0,Wunderground v.1.15,2013-04-28 15:02:00,
2013-04-28 10:03:00,60.9,43.6,29.99,SSE,164,15.0,15.0,53,0.00,,,0.00,0,Wunderground v.1.15,2013-04-28 15:03:00,
2013-04-28 10:04:00,61.0,43.7,29.99,SE,143,7.0,16.0,53,0.00,,,0.00,0,Wunderground v.1.15,2013-04-28 15:04:00,
2013-04-28 10:05:00,61.0,43.2,29.99,SSE,164,9.0,16.0,52,0.00,,,0.00,0,Wunderground v.1.15,2013-04-28 15:05:00,
2013-04-28 10:07:00,61.1,43.3,29.99,South,176,6.0,16.0,52,0.00,,,0.00,0,Wunderground v.1.15,2013-04-28 15:07:00,
2013-04-28 10:08:00,61.1,43.3,29.99,SSW,212,9.0,17.0,52,0.00,,,0.00,0,Wunderground v.1.15,2013-04-28 15:08:00,
2013-04-28 10:09:00,61.1,43.3,29.99,SSW,209,14.0,22.0,52,0.00,,,0.00,0,Wunderground v.1.15,2013-04-28 15:09:00,
2013-04-28 10:10:00,61.2,43.4,29.99,SSE,165,6.0,12.0,52,0.00,,,0.00,0,Wunderground v.1.15,2013-04-28 15:10:00,
2013-04-28 10:13:00,61.4,43.6,29.99,SW,225,5.0,14.0,52,0.00,,,0.00,0,Wunderground v.1.15,2013-04-28 15:13:00,
2013-04-28 10:14:00,61.5,43.2,29.99,SSE,167,4.0,14.0,51,0.00,,,0.00,0,Wunderground v.1.15,2013-04-28 15:14:00,
2013-04-28 10:15:00,61.5,43.7,29.99,SSE,164,6.0,14.0,52,0.00,,,0.00,0,Wunderground v.1.15,2013-04-28 15:15:00,
2013-04-28 10:16:00,61.5,43.7,29.99,South,175,10.0,14.0,52,0.00,,,0.00,0,Wunderground v.1.15,2013-04-28 15:16:00,
2013-04-28 10:18:00,61.5,43.2,29.99,SSE,168,9.0,22.0,51,0.00,,,0.00,0,Wunderground v.1.15,2013-04-28 15:18:00,
2013-04-28 10:19:00,61.5,43.2,29.99,South,175,6.0,22.0,51,0.00,,,0.00,0,Wunderground v.1.15,2013-04-28 15:19:00,
2013-04-28 10:20:00,61.5,43.2,29.99,SSE,155,6.0,6.0,51,0.00,,,0.00,0,Wunderground v.1.15,2013-04-28 15:20:00,
2013-04-28 10:21:00,61.5,43.2,29.99,SSE,156,8.0,12.0,51,0.00,,,0.00,0,Wunderground v.1.15,2013-04-28 15:21:00,
2013-04-28 10:23:00,61.6,43.8,29.99,SSE,166,9.0,12.0,52,0.00,,,0.00,0,Wunderground v.1.15,2013-04-28 15:23:00,
2013-04-28 10:24:00,61.7,43.9,29.99,SSE,167,7.0,12.0,52,0.00,,,0.00,0,Wunderground v.1.15,2013-04-28 15:24:00,
2013-04-28 10:25:00,61.8,43.5,29.99,South,177,5.0,16.0,51,0.00,,,0.00,0,Wunderground v.1.15,2013-04-28 15:25:00,
2013-04-28 10:26:00,61.9,43.6,29.98,SSW,206,10.0,16.0,51,0.00,,,0.00,0,Wunderground v.1.15,2013-04-28 15:26:00,
2013-04-28 10:28:00,62.1,43.7,29.98,SSE,163,7.0,17.0,51,0.00,,,0.00,0,Wunderground v.1.15,2013-04-28 15:28:00,
2013-04-28 10:29:00,62.1,43.2,29.99,SSE,165,13.0,17.0,50,0.00,,,0.00,0,Wunderground v.1.15,2013-04-28 15:29:00,
2013-04-28 10:30:00,62.2,43.3,29.98,South,177,5.0,17.0,50,0.00,,,0.00,0,Wunderground v.1.15,2013-04-28 15:30:00,
2013-04-28 10:31:00,62.2,43.3,29.99,South,191,7.0,15.0,50,0.00,,,0.00,0,Wunderground v.1.15,2013-04-28 15:31:00,
2013-04-28 10:33:00,62.3,42.9,29.98,South,177,13.0,18.0,49,0.00,,,0.00,0,Wunderground v.1.15,2013-04-28 15:33:00,
2013-04-28 10:34:00,62.3,43.4,29.98,SSE,163,9.0,18.0,50,0.00,,,0.00,0,Wunderground v.1.15,2013-04-28 15:34:00,
2013-04-28 10:35:00,62.4,43.5,29.98,SSW,192,7.0,18.0,50,0.00,,,0.00,0,Wunderground v.1.15,2013-04-28 15:35:00,
2013-04-28 10:36:00,62.5,43.1,29.98,SSW,211,9.0,18.0,49,0.00,,,0.00,0,Wunderground v.1.15,2013-04-28 15:36:00,
2013-04-28 10:37:00,62.6,43.2,29.98,SSW,195,13.0,18.0,49,0.00,,,0.00,0,Wunderground v.1.15,2013-04-28 15:37:00,
2013-04-28 10:39:00,62.7,43.3,29.98,SE,142,8.0,18.0,49,0.00,,,0.00,0,Wunderground v.1.15,2013-04-28 15:39:00,
2013-04-28 10:40:00,63.1,43.6,29.98,SSE,156,13.0,16.0,49,0.00,,,0.00,0,Wunderground v.1.15,2013-04-28 15:40:00,
2013-04-28 10:41:00,63.3,43.8,29.98,South,184,8.0,18.0,49,0.00,,,0.00,0,Wunderground v.1.15,2013-04-28 15:41:00,
2013-04-28 10:42:00,63.3,43.8,29.98,South,176,8.0,18.0,49,0.00,,,0.00,0,Wunderground v.1.15,2013-04-28 15:42:00,
2013-04-28 10:44:00,63.6,43.5,29.97,South,177,6.0,18.0,48,0.00,,,0.00,0,Wunderground v.1.15,2013-04-28 15:44:00,
2013-04-28 10:45:00,63.9,43.8,29.97,SSW,199,10.0,18.0,48,0.00,,,0.00,0,Wunderground v.1.15,2013-04-28 15:45:00,
2013-04-28 10:46:00,64.1,44.5,29.98,SE,144,7.0,18.0,49,0.00,,,0.00,0,Wunderground v.1.15,2013-04-28 15:46:00,
2013-04-28 10:47:00,64.2,44.1,29.98,SE,146,14.0,18.0,48,0.00,,,0.00,0,Wunderground v.1.15,2013-04-28 15:47:00,
2013-04-28 10:49:00,64.3,43.1,29.98,SSE,164,8.0,18.0,46,0.00,,,0.00,0,Wunderground v.1.15,2013-04-28 15:49:00,
2013-04-28 10:50:00,64.4,43.7,29.97,South,179,14.0,14.0,47,0.00,,,0.00,0,Wunderground v.1.15,2013-04-28 15:50:00,
2013-04-28 10:51:00,64.4,43.7,29.98,South,183,7.0,14.0,47,0.00,,,0.00,0,Wunderground v.1.15,2013-04-28 15:51:00,
2013-04-28 10:52:00,64.6,43.3,29.97,SSE,168,8.0,21.0,46,0.00,,,0.00,0,Wunderground v.1.15,2013-04-28 15:52:00,
2013-04-28 10:54:00,65.0,44.3,29.97,SSW,207,8.0,21.0,47,0.00,,,0.00,0,Wunderground v.1.15,2013-04-28 15:54:00,
2013-04-28 10:56:00,65.2,42.7,29.97,SE,139,17.0,21.0,44,0.00,,,0.00,0,Wunderground v.1.15,2013-04-28 15:56:00,
2013-04-28 10:57:00,65.2,43.3,29.97,SSE,164,13.0,21.0,45,0.00,,,0.00,0,Wunderground v.1.15,2013-04-28 15:57:00,
2013-04-28 10:59:00,65.1,42.6,29.97,SSE,156,15.0,28.0,44,0.00,,,0.00,0,Wunderground v.1.15,2013-04-28 15:59:00,
2013-04-28 11:01:00,64.9,42.5,29.97,South,180,13.0,18.0,44,0.00,,,0.00,0,Wunderground v.1.15,2013-04-28 16:01:00,
2013-04-28 11:02:00,64.9,42.5,29.97,SSW,193,4.0,18.0,44,0.00,,,0.00,0,Wunderground v.1.15,2013-04-28 16:02:00,
2013-04-28 11:04:00,65.2,42.7,29.97,SSW,212,15.0,18.0,44,0.00,,,0.00,0,Wunderground v.1.15,2013-04-28 16:04:00,
2013-04-28 11:06:00,65.3,42.2,29.97,South,174,5.0,18.0,43,0.00,,,0.00,0,Wunderground v.1.15,2013-04-28 16:06:00,
2013-04-28 11:07:00,65.5,42.4,29.97,SSW,213,21.0,21.0,43,0.00,,,0.00,0,Wunderground v.1.15,2013-04-28 16:07:00,
2013-04-28 11:10:00,65.5,42.4,29.97,South,171,15.0,25.0,43,0.00,,,0.00,0,Wunderground v.1.15,2013-04-28 16:10:00,
2013-04-28 11:11:00,65.6,42.5,29.97,SSE,159,13.0,20.0,43,0.00,,,0.00,0,Wunderground v.1.15,2013-04-28 16:11:00,
2013-04-28 11:12:00,65.5,41.8,29.97,SSW,202,10.0,23.0,42,0.00,,,0.00,0,Wunderground v.1.15,2013-04-28 16:12:00,
2013-04-28 11:13:00,65.5,41.8,29.97,SSW,206,9.0,23.0,42,0.00,,,0.00,0,Wunderground v.1.15,2013-04-28 16:13:00,
2013-04-28 11:15:00,65.4,42.9,29.97,SSW,206,11.0,23.0,44,0.00,,,0.00,0,Wunderground v.1.15,2013-04-28 16:15:00,
2013-04-28 11:17:00,65.5,41.8,29.98,South,177,6.0,23.0,42,0.00,,,0.00,0,Wunderground v.1.15,2013-04-28 16:17:00,
2013-04-28 11:18:00,65.6,41.9,29.97,SSE,157,12.0,23.0,42,0.00,,,0.00,0,Wunderground v.1.15,2013-04-28 16:18:00,
2013-04-28 11:20:00,65.7,42.6,29.98,South,176,8.0,23.0,43,0.00,,,0.00,0,Wunderground v.1.15,2013-04-28 16:20:00,
2013-04-28 11:22:00,65.9,41.5,29.97,SSE,157,8.0,17.0,41,0.00,,,0.00,0,Wunderground v.1.15,2013-04-28 16:22:00,
2013-04-28 11:23:00,66.1,41.7,29.97,SSW,200,4.0,17.0,41,0.00,,,0.00,0,Wunderground v.1.15,2013-04-28 16:23:00,
2013-04-28 11:25:00,66.5,42.7,29.97,SSW,198,10.0,17.0,42,0.00,,,0.00,0,Wunderground v.1.15,2013-04-28 16:25:00,
2013-04-28 11:27:00,66.9,41.8,29.97,SSE,166,15.0,17.0,40,0.00,,,0.00,0,Wunderground v.1.15,2013-04-28 16:27:00,
2013-04-28 11:28:00,66.9,41.8,29.97,SSE,152,13.0,24.0,40,0.00,,,0.00,0,Wunderground v.1.15,2013-04-28 16:28:00,
2013-04-28 11:29:00,66.9,41.1,29.97,SSE,167,12.0,24.0,39,0.00,,,0.00,0,Wunderground v.1.15,2013-04-28 16:29:00,
2013-04-28 11:30:00,66.9,41.8,29.97,South,190,15.0,18.0,40,0.00,,,0.00,0,Wunderground v.1.15,2013-04-28 16:30:00,
2013-04-28 11:32:00,67.0,41.2,29.97,SE,146,19.0,22.0,39,0.00,,,0.00,0,Wunderground v.1.15,2013-04-28 16:32:00,
2013-04-28 11:33:00,67.0,40.5,29.96,SSE,151,11.0,22.0,38,0.00,,,0.00,0,Wunderground v.1.15,2013-04-28 16:33:00,
2013-04-28 11:34:00,66.9,40.5,29.97,South,185,18.0,22.0,38,0.00,,,0.00,0,Wunderground v.1.15,2013-04-28 16:34:00,
2013-04-28 11:35:00,66.8,41.7,29.97,SSW,210,13.0,22.0,40,0.00,,,0.00,0,Wunderground v.1.15,2013-04-28 16:35:00,
2013-04-28 11:37:00,67.1,42.0,29.96,South,179,8.0,22.0,40,0.00,,,0.00,0,Wunderground v.1.15,2013-04-28 16:37:00,
2013-04-28 11:38:00,67.2,41.4,29.96,SW,220,11.0,22.0,39,0.00,,,0.00,0,Wunderground v.1.15,2013-04-28 16:38:00,
2013-04-28 11:39:00,67.3,42.1,29.97,SW,216,9.0,22.0,40,0.00,,,0.00,0,Wunderground v.1.15,2013-04-28 16:39:00,
2013-04-28 11:40:00,67.6,41.7,29.97,South,170,17.0,19.0,39,0.00,,,0.00,0,Wunderground v.1.15,2013-04-28 16:40:00,
2013-04-28 11:42:00,67.6,41.1,29.96,SSE,163,10.0,19.0,38,0.00,,,0.00,0,Wunderground v.1.15,2013-04-28 16:42:00,
2013-04-28 11:43:00,67.6,41.1,29.97,SW,214,14.0,19.0,38,0.00,,,0.00,0,Wunderground v.1.15,2013-04-28 16:43:00,
2013-04-28 11:44:00,67.7,41.2,29.96,SSE,162,10.0,19.0,38,0.00,,,0.00,0,Wunderground v.1.15,2013-04-28 16:44:00,
2013-04-28 11:45:00,67.6,41.1,29.96,SSW,201,10.0,19.0,38,0.00,,,0.00,0,Wunderground v.1.15,2013-04-28 16:45:00,
2013-04-28 11:47:00,67.6,41.1,29.96,SE,144,8.0,19.0,38,0.00,,,0.00,0,Wunderground v.1.15,2013-04-28 16:47:00,
2013-04-28 11:48:00,67.6,41.7,29.96,SSE,155,5.0,19.0,39,0.00,,,0.00,0,Wunderground v.1.15,2013-04-28 16:48:00,
2013-04-28 11:49:00,67.8,41.3,29.96,South,175,8.0,19.0,38,0.00,,,0.00,0,Wunderground v.1.15,2013-04-28 16:49:00,
2013-04-28 11:50:00,67.9,41.3,29.96,SSE,158,17.0,21.0,38,0.00,,,0.00,0,Wunderground v.1.15,2013-04-28 16:50:00,
2013-04-28 11:52:00,67.9,41.3,29.96,SSW,213,17.0,28.0,38,0.00,,,0.00,0,Wunderground v.1.15,2013-04-28 16:52:00,
2013-04-28 11:53:00,67.8,40.6,29.96,South,176,16.0,28.0,37,0.00,,,0.00,0,Wunderground v.1.15,2013-04-28 16:53:00,
2013-04-28 11:54:00,67.8,40.6,29.96,SSW,203,8.0,28.0,37,0.00,,,0.00,0,Wunderground v.1.15,2013-04-28 16:54:00,
2013-04-28 11:55:00,67.8,41.3,29.95,SSW,202,15.0,28.0,38,0.00,,,0.00,0,Wunderground v.1.15,2013-04-28 16:55:00,
2013-04-28 11:57:00,67.7,40.5,29.96,South,169,9.0,28.0,37,0.00,,,0.00,0,Wunderground v.1.15,2013-04-28 16:57:00,
2013-04-28 11:58:00,67.7,40.5,29.95,SSE,166,7.0,28.0,37,0.00,,,0.00,0,Wunderground v.1.15,2013-04-28 16:58:00,
2013-04-28 11:59:00,67.7,40.5,29.95,South,186,6.0,28.0,37,0.00,,,0.00,0,Wunderground v.1.15,2013-04-28 16:59:00,
2013-04-28 12:01:00,67.9,41.3,29.96,SW,215,20.0,20.0,38,0.00,,,0.00,0,Wunderground v.1.15,2013-04-28 17:01:00,
2013-04-28 12:03:00,68.2,40.9,29.95,SSW,199,8.0,20.0,37,0.00,,,0.00,0,Wunderground v.1.15,2013-04-28 17:03:00,
2013-04-28 12:04:00,68.4,41.8,29.96,SSE,148,13.0,20.0,38,0.00,,,0.00,0,Wunderground v.1.15,2013-04-28 17:04:00,
2013-04-28 12:05:00,68.5,41.2,29.96,SSW,202,9.0,20.0,37,0.00,,,0.00,0,Wunderground v.1.15,2013-04-28 17:05:00,
2013-04-28 12:06:00,68.6,40.6,29.96,SSW,199,16.0,24.0,36,0.00,,,0.00,0,Wunderground v.1.15,2013-04-28 17:06:00,
2013-04-28 12:08:00,68.3,41.0,29.96,South,178,13.0,24.0,37,0.00,,,0.00,0,Wunderground v.1.15,2013-04-28 17:08:00,
2013-04-28 12:09:00,68.2,40.2,29.96,SSW,199,15.0,24.0,36,0.00,,,0.00,0,Wunderground v.1.15,2013-04-28 17:09:00,
2013-04-28 12:10:00,68.1,40.8,29.96,South,173,15.0,24.0,37,0.00,,,0.00,0,Wunderground v.1.15,2013-04-28 17:10:00,
2013-04-28 12:11:00,68.1,41.5,29.95,SSW,206,10.0,16.0,38,0.00,,,0.00,0,Wunderground v.1.15,2013-04-28 17:11:00,
2013-04-28 12:14:00,68.4,41.1,29.95,South,177,6.0,16.0,37,0.00,,,0.00,0,Wunderground v.1.15,2013-04-28 17:14:00,
2013-04-28 12:15:00,68.5,41.2,29.96,SSE,160,11.0,19.0,37,0.00,,,0.00,0,Wunderground v.1.15,2013-04-28 17:15:00,
2013-04-28 12:16:00,68.5,41.2,29.96,SSW,204,13.0,19.0,37,0.00,,,0.00,0,Wunderground v.1.15,2013-04-28 17:16:00,
2013-04-28 12:19:00,68.9,40.8,29.96,South,191,10.0,19.0,36,0.00,,,0.00,0,Wunderground v.1.15,2013-04-28 17:19:00,
2013-04-28 12:20:00,68.9,40.8,29.96,SSW,194,19.0,19.0,36,0.00,,,0.00,0,Wunderground v.1.15,2013-04-28 17:20:00,
2013-04-28 12:22:00,68.8,40.7,29.95,SSE,167,8.0,17.0,36,0.00,,,0.00,0,Wunderground v.1.15,2013-04-28 17:22:00,
2013-04-28 12:24:00,69.3,41.2,29.95,South,188,6.0,19.0,36,0.00,,,0.00,0,Wunderground v.1.15,2013-04-28 17:24:00,
2013-04-28 12:25:00,69.3,41.2,29.95,South,170,3.0,19.0,36,0.00,,,0.00,0,Wunderground v.1.15,2013-04-28 17:25:00,
2013-04-28 12:27:00,69.7,41.5,29.95,South,186,12.0,19.0,36,0.00,,,0.00,0,Wunderground v.1.15,2013-04-28 17:27:00,
2013-04-28 12:30:00,69.6,40.7,29.95,SSE,161,9.0,22.0,35,0.00,,,0.00,0,Wunderground v.1.15,2013-04-28 17:30:00,
2013-04-28 12:32:00,70.1,41.9,29.95,SSE,147,12.0,20.0,36,0.00,,,0.00,0,Wunderground v.1.15,2013-04-28 17:32:00,
2013-04-28 12:35:00,70.2,41.3,29.95,South,169,9.0,20.0,35,0.00,,,0.00,0,Wunderground v.1.15,2013-04-28 17:35:00,
2013-04-28 12:36:00,70.2,41.3,29.95,SE,145,18.0,20.0,35,0.00,,,0.00,0,Wunderground v.1.15,2013-04-28 17:36:00,
2013-04-28 12:37:00,69.8,40.9,29.95,SSE,159,12.0,20.0,35,0.00,,,0.00,0,Wunderground v.1.15,2013-04-28 17:37:00,
2013-04-28 12:40:00,69.6,40.7,29.95,SSE,153,21.0,21.0,35,0.00,,,0.00,0,Wunderground v.1.15,2013-04-28 17:40:00,
2013-04-28 12:41:00,69.5,40.6,29.94,SSW,199,12.0,21.0,35,0.00,,,0.00,0,Wunderground v.1.15,2013-04-28 17:41:00,
2013-04-28 12:43:00,69.6,41.5,29.95,SSE,157,5.0,21.0,36,0.00,,,0.00,0,Wunderground v.1.15,2013-04-28 17:43:00,
2013-04-28 12:45:00,69.8,40.9,29.95,SSE,161,11.0,21.0,35,0.00,,,0.00,0,Wunderground v.1.15,2013-04-28 17:45:00,
2013-04-28 12:46:00,69.9,41.0,29.94,SSW,202,7.0,21.0,35,0.00,,,0.00,0,Wunderground v.1.15,2013-04-28 17:46:00,
2013-04-28 12:48:00,69.9,41.0,29.95,SSE,167,11.0,21.0,35,0.00,,,0.00,0,Wunderground v.1.15,2013-04-28 17:48:00,
2013-04-28 12:50:00,69.9,41.0,29.94,SSW,197,10.0,13.0,35,0.00,,,0.00,0,Wunderground v.1.15,2013-04-28 17:50:00,
2013-04-28 12:51:00,70.0,41.1,29.95,South,191,8.0,14.0,35,0.00,,,0.00,0,Wunderground v.1.15,2013-04-28 17:51:00,
2013-04-28 12:53:00,70.1,41.2,29.94,South,173,7.0,15.0,35,0.00,,,0.00,0,Wunderground v.1.15,2013-04-28 17:53:00,
2013-04-28 12:55:00,70.2,41.3,29.95,SSW,212,15.0,17.0,35,0.00,,,0.00,0,Wunderground v.1.15,2013-04-28 17:55:00,
2013-04-28 12:56:00,70.1,41.2,29.95,SSW,202,11.0,20.0,35,0.00,,,0.00,0,Wunderground v.1.15,2013-04-28 17:56:00,
2013-04-28 12:58:00,70.0,41.1,29.95,South,177,5.0,20.0,35,0.00,,,0.00,0,Wunderground v.1.15,2013-04-28 17:58:00,
2013-04-28 13:00:00,70.2,41.3,29.94,SSW,204,9.0,13.0,35,0.00,,,0.00,0,Wunderground v.1.15,2013-04-28 18:00:00,
2013-04-28 13:01:00,70.3,41.3,29.94,SSW,200,9.0,13.0,35,0.00,,,0.00,0,Wunderground v.1.15,2013-04-28 18:01:00,
2013-04-28 13:02:00,70.4,41.4,29.94,South,173,12.0,14.0,35,0.00,,,0.00,0,Wunderground v.1.15,2013-04-28 18:02:00,
2013-04-28 13:03:00,70.4,41.4,29.94,South,173,12.0,21.0,35,0.00,,,0.00,0,Wunderground v.1.15,2013-04-28 18:03:00,
2013-04-28 13:05:00,70.6,40.9,29.94,South,181,5.0,21.0,34,0.00,,,0.00,0,Wunderground v.1.15,2013-04-28 18:05:00,
2013-04-28 13:06:00,70.6,41.6,29.93,SSE,164,6.0,21.0,35,0.00,,,0.00,0,Wunderground v.1.15,2013-04-28 18:06:00,
2013-04-28 13:07:00,70.6,41.6,29.94,South,179,8.0,21.0,35,0.00,,,0.00,0,Wunderground v.1.15,2013-04-28 18:07:00,
2013-04-28 13:08:00,70.7,41.7,29.94,South,190,9.0,21.0,35,0.00,,,0.00,0,Wunderground v.1.15,2013-04-28 18:08:00,
2013-04-28 13:10:00,70.5,40.8,29.94,South,174,12.0,15.0,34,0.00,,,0.00,0,Wunderground v.1.15,2013-04-28 18:10:00,
2013-04-28 13:11:00,70.5,40.8,29.94,SSW,201,14.0,16.0,34,0.00,,,0.00,0,Wunderground v.1.15,2013-04-28 18:11:00,
2013-04-28 13:12:00,70.5,40.8,29.94,SSW,195,6.0,16.0,34,0.00,,,0.00,0,Wunderground v.1.15,2013-04-28 18:12:00,
2013-04-28 13:13:00,70.6,40.9,29.94,SW,220,6.0,16.0,34,0.00,,,0.00,0,Wunderground v.1.15,2013-04-28 18:13:00,
2013-04-28 13:14:00,70.8,40.3,29.94,SSW,209,13.0,18.0,33,0.00,,,0.00,0,Wunderground v.1.15,2013-04-28 18:14:00,
2013-04-28 13:16:00,71.1,42.0,29.94,SSW,195,8.0,18.0,35,0.00,,,0.00,0,Wunderground v.1.15,2013-04-28 18:16:00,
2013-04-28 13:17:00,71.5,40.9,29.94,SSE,154,13.0,19.0,33,0.00,,,0.00,0,Wunderground v.1.15,2013-04-28 18:17:00,
2013-04-28 13:18:00,71.4,40.8,29.94,SSW,194,15.0,19.0,33,0.00,,,0.00,0,Wunderground v.1.15,2013-04-28 18:18:00,
2013-04-28 13:19:00,71.4,41.6,29.94,SSE,156,10.0,20.0,34,0.00,,,0.00,0,Wunderground v.1.15,2013-04-28 18:19:00,
2013-04-28 13:21:00,71.5,41.6,29.94,SSW,207,7.0,16.0,34,0.00,,,0.00,0,Wunderground v.1.15,2013-04-28 18:21:00,
2013-04-28 13:22:00,71.6,41.7,29.94,SSW,199,8.0,16.0,34,0.00,,,0.00,0,Wunderground v.1.15,2013-04-28 18:22:00,
2013-04-28 13:23:00,71.9,40.4,29.93,SSW,211,13.0,19.0,32,0.00,,,0.00,0,Wunderground v.1.15,2013-04-28 18:23:00,
2013-04-28 13:24:00,72.1,40.6,29.94,SW,227,14.0,22.0,32,0.00,,,0.00,0,Wunderground v.1.15,2013-04-28 18:24:00,
2013-04-28 13:26:00,71.8,40.3,29.93,South,176,16.0,22.0,32,0.00,,,0.00,0,Wunderground v.1.15,2013-04-28 18:26:00,
2013-04-28 13:27:00,71.8,40.3,29.93,SW,218,17.0,22.0,32,0.00,,,0.00,0,Wunderground v.1.15,2013-04-28 18:27:00,
2013-04-28 13:28:00,71.7,41.8,29.93,South,183,11.0,22.0,34,0.00,,,0.00,0,Wunderground v.1.15,2013-04-28 18:28:00,
2013-04-28 13:30:00,71.8,40.3,29.93,SSW,203,11.0,11.0,32,0.00,,,0.00,0,Wunderground v.1.15,2013-04-28 18:30:00,
2013-04-28 13:32:00,71.9,41.2,29.93,SW,220,9.0,18.0,33,0.00,,,0.00,0,Wunderground v.1.15,2013-04-28 18:32:00,
2013-04-28 13:33:00,72.1,42.9,29.93,SSE,161,14.0,21.0,35,0.00,,,0.00,0,Wunderground v.1.15,2013-04-28 18:33:00,
2013-04-28 13:35:00,72.4,40.9,29.93,SSE,166,13.0,25.0,32,0.00,,,0.00,0,Wunderground v.1.15,2013-04-28 18:35:00,
2013-04-28 13:37:00,72.3,41.6,29.93,SSE,153,12.0,25.0,33,0.00,,,0.00,0,Wunderground v.1.15,2013-04-28 18:37:00,
2013-04-28 13:38:00,72.2,41.5,29.93,WSW,237,7.0,25.0,33,0.00,,,0.00,0,Wunderground v.1.15,2013-04-28 18:38:00,
2013-04-28 13:40:00,72.1,41.4,29.93,SW,226,15.0,15.0,33,0.00,,,0.00,0,Wunderground v.1.15,2013-04-28 18:40:00,
2013-04-28 13:42:00,72.0,42.1,29.93,SW,218,15.0,22.0,34,0.00,,,0.00,0,Wunderground v.1.15,2013-04-28 18:42:00,
2013-04-28 13:43:00,72.0,42.1,29.92,SSW,203,16.0,23.0,34,0.00,,,0.00,0,Wunderground v.1.15,2013-04-28 18:43:00,
2013-04-28 13:46:00,72.4,42.4,29.93,SSE,165,9.0,23.0,34,0.00,,,0.00,0,Wunderground v.1.15,2013-04-28 18:46:00,
2013-04-28 13:48:00,72.3,41.6,29.92,SSE,163,5.0,23.0,33,0.00,,,0.00,0,Wunderground v.1.15,2013-04-28 18:48:00,
2013-04-28 13:49:00,72.3,41.6,29.92,South,173,8.0,23.0,33,0.00,,,0.00,0,Wunderground v.1.15,2013-04-28 18:49:00,
2013-04-28 13:51:00,72.3,41.6,29.92,SSE,167,11.0,14.0,33,0.00,,,0.00,0,Wunderground v.1.15,2013-04-28 18:51:00,
2013-04-28 13:53:00,72.3,41.6,29.92,SSE,161,11.0,18.0,33,0.00,,,0.00,0,Wunderground v.1.15,2013-04-28 18:53:00,
2013-04-28 13:54:00,72.3,41.6,29.93,SW,220,9.0,18.0,33,0.00,,,0.00,0,Wunderground v.1.15,2013-04-28 18:54:00,
2013-04-28 13:56:00,72.7,41.9,29.92,SSW,207,7.0,18.0,33,0.00,,,0.00,0,Wunderground v.1.15,2013-04-28 18:56:00,
2013-04-28 13:58:00,72.9,42.9,29.92,SSE,154,8.0,18.0,34,0.00,,,0.00,0,Wunderground v.1.15,2013-04-28 18:58:00,
2013-04-28 13:59:00,73.0,41.4,29.92,South,171,8.0,18.0,32,0.00,,,0.00,0,Wunderground v.1.15,2013-04-28 18:59:00,
2013-04-28 14:01:00,73.0,41.4,29.93,SSE,157,16.0,17.0,32,0.00,,,0.00,0,Wunderground v.1.15,2013-04-28 19:01:00,
2013-04-28 14:03:00,73.0,42.2,29.92,SSE,166,9.0,17.0,33,0.00,,,0.00,0,Wunderground v.1.15,2013-04-28 19:03:00,
2013-04-28 14:04:00,73.0,42.2,29.92,SSE,168,5.0,18.0,33,0.00,,,0.00,0,Wunderground v.1.15,2013-04-28 19:04:00,
2013-04-28 14:06:00,73.0,42.2,29.93,South,185,3.0,18.0,33,0.00,,,0.00,0,Wunderground v.1.15,2013-04-28 19:06:00,
2013-04-28 14:08:00,73.0,41.4,29.93,SSW,203,13.0,19.0,32,0.00,,,0.00,0,Wunderground v.1.15,2013-04-28 19:08:00,
2013-04-28 14:09:00,73.0,41.4,29.92,SW,220,18.0,19.0,32,0.00,,,0.00,0,Wunderground v.1.15,2013-04-28 19:09:00,
2013-04-28 14:11:00,72.8,41.2,29.92,South,173,3.0,19.0,32,0.00,,,0.00,0,Wunderground v.1.15,2013-04-28 19:11:00,
2013-04-28 14:14:00,73.1,41.5,29.92,SSE,167,5.0,19.0,32,0.00,,,0.00,0,Wunderground v.1.15,2013-04-28 19:14:00,
2013-04-28 14:15:00,73.1,41.5,29.92,SW,219,16.0,19.0,32,0.00,,,0.00,0,Wunderground v.1.15,2013-04-28 19:15:00,
2013-04-28 14:17:00,73.3,42.4,29.92,SW,216,14.0,20.0,33,0.00,,,0.00,0,Wunderground v.1.15,2013-04-28 19:17:00,
2013-04-28 14:19:00,73.3,41.6,29.93,SSE,149,8.0,20.0,32,0.00,,,0.00,0,Wunderground v.1.15,2013-04-28 19:19:00,
2013-04-28 14:20:00,73.3,41.6,29.92,South,175,10.0,13.0,32,0.00,,,0.00,0,Wunderground v.1.15,2013-04-28 19:20:00,
2013-04-28 14:23:00,73.2,42.4,29.92,SW,223,15.0,16.0,33,0.00,,,0.00,0,Wunderground v.1.15,2013-04-28 19:23:00,
2013-04-28 14:24:00,73.3,42.4,29.93,SSW,192,10.0,17.0,33,0.00,,,0.00,0,Wunderground v.1.15,2013-04-28 19:24:00,
2013-04-28 14:25:00,73.3,41.6,29.93,South,169,9.0,17.0,32,0.00,,,0.00,0,Wunderground v.1.15,2013-04-28 19:25:00,
2013-04-28 14:28:00,73.2,41.6,29.92,SSW,194,8.0,17.0,32,0.00,,,0.00,0,Wunderground v.1.15,2013-04-28 19:28:00,
2013-04-28 14:29:00,73.2,41.6,29.92,South,188,10.0,18.0,32,0.00,,,0.00,0,Wunderground v.1.15,2013-04-28 19:29:00,
2013-04-28 14:30:00,73.2,41.6,29.92,SSW,197,7.0,12.0,32,0.00,,,0.00,0,Wunderground v.1.15,2013-04-28 19:30:00,
2013-04-28 14:33:00,73.5,42.6,29.92,SSW,208,7.0,15.0,33,0.00,,,0.00,0,Wunderground v.1.15,2013-04-28 19:33:00,
2013-04-28 14:34:00,73.7,42.0,29.92,SSW,211,6.0,15.0,32,0.00,,,0.00,0,Wunderground v.1.15,2013-04-28 19:34:00,
2013-04-28 14:35:00,73.8,42.9,29.92,South,174,7.0,15.0,33,0.00,,,0.00,0,Wunderground v.1.15,2013-04-28 19:35:00,
2013-04-28 14:36:00,73.9,43.0,29.92,South,172,5.0,15.0,33,0.00,,,0.00,0,Wunderground v.1.15,2013-04-28 19:36:00,
2013-04-28 14:38:00,74.2,42.4,29.92,South,171,8.0,15.0,32,0.00,,,0.00,0,Wunderground v.1.15,2013-04-28 19:38:00,
2013-04-28 14:39:00,74.4,42.6,29.92,SE,145,18.0,18.0,32,0.00,,,0.00,0,Wunderground v.1.15,2013-04-28 19:39:00,
2013-04-28 14:40:00,74.4,42.6,29.92,South,174,17.0,17.0,32,0.00,,,0.00,0,Wunderground v.1.15,2013-04-28 19:40:00,
2013-04-28 14:41:00,74.4,42.6,29.92,SSW,197,11.0,17.0,32,0.00,,,0.00,0,Wunderground v.1.15,2013-04-28 19:41:00,
2013-04-28 14:43:00,74.1,42.3,29.92,SSW,209,20.0,21.0,32,0.00,,,0.00,0,Wunderground v.1.15,2013-04-28 19:43:00,
2013-04-28 14:45:00,74.2,42.4,29.92,South,178,5.0,21.0,32,0.00,,,0.00,0,Wunderground v.1.15,2013-04-28 19:45:00,
2013-04-28 14:46:00,74.2,42.4,29.92,SSE,153,14.0,21.0,32,0.00,,,0.00,0,Wunderground v.1.15,2013-04-28 19:46:00,
2013-04-28 14:49:00,74.3,42.5,29.91,South,180,0.0,21.0,32,0.00,,,0.00,0,Wunderground v.1.15,2013-04-28 19:49:00,
2013-04-28 14:50:00,74.5,42.7,29.91,SSW,211,12.0,16.0,32,0.00,,,0.00,0,Wunderground v.1.15,2013-04-28 19:50:00,
2013-04-28 14:51:00,74.5,42.7,29.91,SW,227,10.0,16.0,32,0.00,,,0.00,0,Wunderground v.1.15,2013-04-28 19:51:00,
2013-04-28 14:54:00,75.0,43.1,29.91,SE,137,8.0,16.0,32,0.00,,,0.00,0,Wunderground v.1.15,2013-04-28 19:54:00,
2013-04-28 14:55:00,75.1,42.4,29.91,SSE,165,7.0,16.0,31,0.00,,,0.00,0,Wunderground v.1.15,2013-04-28 19:55:00,
2013-04-28 14:56:00,75.1,43.2,29.91,South,170,11.0,16.0,32,0.00,,,0.00,0,Wunderground v.1.15,2013-04-28 19:56:00,
2013-04-28 15:00:00,75.0,43.1,29.91,SW,216,6.0,17.0,32,0.00,,,0.00,0,Wunderground v.1.15,2013-04-28 20:00:00,
2013-04-28 15:01:00,74.9,43.0,29.91,SSE,168,12.0,17.0,32,0.00,,,0.00,0,Wunderground v.1.15,2013-04-28 20:01:00,
2013-04-28 15:02:00,74.9,43.0,29.91,SSW,202,9.0,17.0,32,0.00,,,0.00,0,Wunderground v.1.15,2013-04-28 20:02:00,
2013-04-28 15:05:00,75.0,42.3,29.91,South,169,11.0,17.0,31,0.00,,,0.00,0,Wunderground v.1.15,2013-04-28 20:05:00,
2013-04-28 15:06:00,75.0,42.3,29.91,SSW,194,13.0,17.0,31,0.00,,,0.00,0,Wunderground v.1.15,2013-04-28 20:06:00,
2013-04-28 15:07:00,75.0,43.1,29.91,SSW,207,8.0,19.0,32,0.00,,,0.00,0,Wunderground v.1.15,2013-04-28 20:07:00,
2013-04-28 15:10:00,75.0,42.3,29.91,SW,218,15.0,15.0,31,0.00,,,0.00,0,Wunderground v.1.15,2013-04-28 20:10:00,
2013-04-28 15:11:00,74.9,42.2,29.91,SSW,208,7.0,15.0,31,0.00,,,0.00,0,Wunderground v.1.15,2013-04-28 20:11:00,
2013-04-28 15:13:00,74.9,43.0,29.90,SSE,156,3.0,15.0,32,0.00,,,0.00,0,Wunderground v.1.15,2013-04-28 20:13:00,
2013-04-28 15:15:00,75.3,42.6,29.91,SW,228,11.0,15.0,31,0.00,,,0.00,0,Wunderground v.1.15,2013-04-28 20:15:00,
2013-04-28 15:16:00,75.3,42.6,29.90,SW,225,14.0,15.0,31,0.00,,,0.00,0,Wunderground v.1.15,2013-04-28 20:16:00,
2013-04-28 15:18:00,75.6,42.8,29.91,SSW,209,12.0,15.0,31,0.00,,,0.00,0,Wunderground v.1.15,2013-04-28 20:18:00,
2013-04-28 15:21:00,76.1,42.4,29.90,SSE,151,10.0,15.0,30,0.00,,,0.00,0,Wunderground v.1.15,2013-04-28 20:21:00,
2013-04-28 15:22:00,76.2,41.6,29.91,SW,221,8.0,18.0,29,0.00,,,0.00,0,Wunderground v.1.15,2013-04-28 20:22:00,
2013-04-28 15:23:00,76.2,42.5,29.90,SW,216,9.0,18.0,30,0.00,,,0.00,0,Wunderground v.1.15,2013-04-28 20:23:00,
2013-04-28 15:26:00,76.2,42.5,29.90,South,189,12.0,24.0,30,0.00,,,0.00,0,Wunderground v.1.15,2013-04-28 20:26:00,
2013-04-28 15:27:00,76.2,41.6,29.90,SW,227,11.0,24.0,29,0.00,,,0.00,0,Wunderground v.1.15,2013-04-28 20:27:00,
2013-04-28 15:28:00,76.3,41.7,29.90,South,186,6.0,24.0,29,0.00,,,0.00,0,Wunderground v.1.15,2013-04-28 20:28:00,
2013-04-28 15:31:00,76.2,41.6,29.90,South,178,5.0,12.0,29,0.00,,,0.00,0,Wunderground v.1.15,2013-04-28 20:31:00,
2013-04-28 15:32:00,76.2,41.6,29.90,SW,225,10.0,12.0,29,0.00,,,0.00,0,Wunderground v.1.15,2013-04-28 20:32:00,
2013-04-28 15:33:00,76.4,41.8,29.90,SW,221,19.0,20.0,29,0.00,,,0.00,0,Wunderground v.1.15,2013-04-28 20:33:00,
2013-04-28 15:36:00,76.3,41.7,29.90,SW,214,15.0,20.0,29,0.00,,,0.00,0,Wunderground v.1.15,2013-04-28 20:36:00,
2013-04-28 15:37:00,76.3,41.7,29.89,South,176,3.0,20.0,29,0.00,,,0.00,0,Wunderground v.1.15,2013-04-28 20:37:00,
2013-04-28 15:39:00,76.2,42.5,29.89,SSE,164,4.0,20.0,30,0.00,,,0.00,0,Wunderground v.1.15,2013-04-28 20:39:00,
2013-04-28 15:41:00,76.3,41.7,29.89,SW,228,15.0,19.0,29,0.00,,,0.00,0,Wunderground v.1.15,2013-04-28 20:41:00,
2013-04-28 15:42:00,76.3,41.7,29.89,SW,217,14.0,19.0,29,0.00,,,0.00,0,Wunderground v.1.15,2013-04-28 20:42:00,
2013-04-28 15:43:00,76.3,41.7,29.90,SSW,199,6.0,19.0,29,0.00,,,0.00,0,Wunderground v.1.15,2013-04-28 20:43:00,
2013-04-28 15:44:00,76.3,41.7,29.89,SSE,168,12.0,19.0,29,0.00,,,0.00,0,Wunderground v.1.15,2013-04-28 20:44:00,
2013-04-28 15:46:00,76.2,41.6,29.89,South,184,5.0,19.0,29,0.00,,,0.00,0,Wunderground v.1.15,2013-04-28 20:46:00,
2013-04-28 15:48:00,76.2,41.6,29.89,South,179,10.0,19.0,29,0.00,,,0.00,0,Wunderground v.1.15,2013-04-28 20:48:00,
2013-04-28 15:49:00,76.2,41.6,29.89,SW,214,20.0,20.0,29,0.00,,,0.00,0,Wunderground v.1.15,2013-04-28 20:49:00,
2013-04-28 15:52:00,76.2,41.6,29.89,SSW,211,13.0,24.0,29,0.00,,,0.00,0,Wunderground v.1.15,2013-04-28 20:52:00,
2013-04-28 15:53:00,76.2,41.6,29.89,SSW,208,8.0,24.0,29,0.00,,,0.00,0,Wunderground v.1.15,2013-04-28 20:53:00,
2013-04-28 15:54:00,76.2,41.6,29.89,SW,217,14.0,24.0,29,0.00,,,0.00,0,Wunderground v.1.15,2013-04-28 20:54:00,
2013-04-28 15:57:00,76.3,41.7,29.89,SSW,205,8.0,24.0,29,0.00,,,0.00,0,Wunderground v.1.15,2013-04-28 20:57:00,
2013-04-28 15:58:00,76.4,41.8,29.89,SSW,212,10.0,24.0,29,0.00,,,0.00,0,Wunderground v.1.15,2013-04-28 20:58:00,
2013-04-28 15:59:00,76.4,41.8,29.89,SSW,194,7.0,24.0,29,0.00,,,0.00,0,Wunderground v.1.15,2013-04-28 20:59:00,
2013-04-28 16:02:00,76.5,41.9,29.89,SW,223,10.0,18.0,29,0.00,,,0.00,0,Wunderground v.1.15,2013-04-28 21:02:00,
2013-04-28 16:03:00,76.5,41.9,29.89,SSE,165,4.0,18.0,29,0.00,,,0.00,0,Wunderground v.1.15,2013-04-28 21:03:00,
2013-04-28 16:04:00,76.5,41.9,29.89,SSE,161,5.0,18.0,29,0.00,,,0.00,0,Wunderground v.1.15,2013-04-28 21:04:00,
2013-04-28 16:05:00,76.5,41.9,29.89,SW,229,8.0,18.0,29,0.00,,,0.00,0,Wunderground v.1.15,2013-04-28 21:05:00,
2013-04-28 16:07:00,76.5,41.0,29.88,SW,218,13.0,22.0,28,0.00,,,0.00,0,Wunderground v.1.15,2013-04-28 21:07:00,
2013-04-28 16:08:00,76.4,41.8,29.88,South,183,14.0,22.0,29,0.00,,,0.00,0,Wunderground v.1.15,2013-04-28 21:08:00,
2013-04-28 16:09:00,76.4,41.8,29.89,SSE,159,5.0,22.0,29,0.00,,,0.00,0,Wunderground v.1.15,2013-04-28 21:09:00,
2013-04-28 16:10:00,76.4,41.8,29.88,SSW,208,8.0,8.0,29,0.00,,,0.00,0,Wunderground v.1.15,2013-04-28 21:10:00,
2013-04-28 16:13:00,76.1,40.6,29.89,SW,225,8.0,18.0,28,0.00,,,0.00,0,Wunderground v.1.15,2013-04-28 21:13:00,
2013-04-28 16:14:00,76.0,40.5,29.88,SSW,204,12.0,18.0,28,0.00,,,0.00,0,Wunderground v.1.15,2013-04-28 21:14:00,
2013-04-28 16:15:00,75.8,41.3,29.88,SSE,165,11.0,18.0,29,0.00,,,0.00,0,Wunderground v.1.15,2013-04-28 21:15:00,
2013-04-28 16:18:00,75.7,41.2,29.88,SSW,199,9.0,18.0,29,0.00,,,0.00,0,Wunderground v.1.15,2013-04-28 21:18:00,
2013-04-28 16:19:00,75.7,41.2,29.89,SSW,212,14.0,18.0,29,0.00,,,0.00,0,Wunderground v.1.15,2013-04-28 21:19:00,
2013-04-28 16:20:00,75.6,41.1,29.88,South,172,13.0,18.0,29,0.00,,,0.00,0,Wunderground v.1.15,2013-04-28 21:20:00,
2013-04-28 16:21:00,75.6,41.1,29.88,SSE,163,9.0,9.0,29,0.00,,,0.00,0,Wunderground v.1.15,2013-04-28 21:21:00,
2013-04-28 16:23:00,75.9,41.3,29.88,SW,217,11.0,13.0,29,0.00,,,0.00,0,Wunderground v.1.15,2013-04-28 21:23:00,
2013-04-28 16:24:00,76.0,41.4,29.88,SW,233,10.0,13.0,29,0.00,,,0.00,0,Wunderground v.1.15,2013-04-28 21:24:00,
2013-04-28 16:25:00,76.2,41.6,29.88,SSW,212,9.0,13.0,29,0.00,,,0.00,0,Wunderground v.1.15,2013-04-28 21:25:00,
2013-04-28 16:26:00,76.4,41.8,29.88,South,186,13.0,17.0,29,0.00,,,0.00,0,Wunderground v.1.15,2013-04-28 21:26:00,
2013-04-28 16:29:00,76.5,41.9,29.88,South,176,2.0,18.0,29,0.00,,,0.00,0,Wunderground v.1.15,2013-04-28 21:29:00,
2013-04-28 16:30:00,76.6,41.0,29.88,SSW,192,9.0,9.0,28,0.00,,,0.00,0,Wunderground v.1.15,2013-04-28 21:30:00,
2013-04-28 16:32:00,76.3,40.8,29.87,SSW,207,12.0,18.0,28,0.00,,,0.00,0,Wunderground v.1.15,2013-04-28 21:32:00,
2013-04-28 16:34:00,76.2,41.6,29.88,SSW,212,8.0,18.0,29,0.00,,,0.00,0,Wunderground v.1.15,2013-04-28 21:34:00,
2013-04-28 16:36:00,76.4,40.9,29.87,SSE,167,7.0,18.0,28,0.00,,,0.00,0,Wunderground v.1.15,2013-04-28 21:36:00,
2013-04-28 16:37:00,76.4,41.8,29.88,SSE,160,2.0,18.0,29,0.00,,,0.00,0,Wunderground v.1.15,2013-04-28 21:37:00,
2013-04-28 16:39:00,76.7,41.1,29.88,SSW,195,10.0,18.0,28,0.00,,,0.00,0,Wunderground v.1.15,2013-04-28 21:39:00,
2013-04-28 16:40:00,76.6,40.1,29.87,SSW,204,9.0,11.0,27,0.00,,,0.00,0,Wunderground v.1.15,2013-04-28 21:40:00,
2013-04-28 16:41:00,76.5,41.9,29.87,South,175,8.0,11.0,29,0.00,,,0.00,0,Wunderground v.1.15,2013-04-28 21:41:00,
2013-04-28 16:42:00,76.6,42.0,29.87,SSW,200,9.0,11.0,29,0.00,,,0.00,0,Wunderground v.1.15,2013-04-28 21:42:00,
2013-04-28 16:44:00,76.4,40.9,29.87,SSW,194,8.0,14.0,28,0.00,,,0.00,0,Wunderground v.1.15,2013-04-28 21:44:00,
2013-04-28 16:46:00,76.3,40.8,29.87,SW,219,13.0,17.0,28,0.00,,,0.00,0,Wunderground v.1.15,2013-04-28 21:46:00,
2013-04-28 16:47:00,76.3,39.8,29.87,SW,220,11.0,17.0,27,0.00,,,0.00,0,Wunderground v.1.15,2013-04-28 21:47:00,
2013-04-28 16:49:00,76.2,41.6,29.87,South,180,8.0,17.0,29,0.00,,,0.00,0,Wunderground v.1.15,2013-04-28 21:49:00,
2013-04-28 16:51:00,76.2,41.6,29.86,SSW,200,7.0,12.0,29,0.00,,,0.00,0,Wunderground v.1.15,2013-04-28 21:51:00,
2013-04-28 16:52:00,76.2,41.6,29.87,SE,133,7.0,12.0,29,0.00,,,0.00,0,Wunderground v.1.15,2013-04-28 21:52:00,
2013-04-28 16:54:00,76.1,41.5,29.87,South,175,7.0,12.0,29,0.00,,,0.00,0,Wunderground v.1.15,2013-04-28 21:54:00,
2013-04-28 16:56:00,76.0,41.4,29.86,SSW,200,10.0,12.0,29,0.00,,,0.00,0,Wunderground v.1.15,2013-04-28 21:56:00,
2013-04-28 16:57:00,76.1,41.5,29.86,SSW,204,9.0,12.0,29,0.00,,,0.00,0,Wunderground v.1.15,2013-04-28 21:57:00,
2013-04-28 17:00:00,76.3,41.7,29.86,SSE,162,4.0,5.0,29,0.00,,,0.00,0,Wunderground v.1.15,2013-04-28 22:00:00,
2013-04-28 17:01:00,76.4,41.8,29.86,South,172,6.0,10.0,29,0.00,,,0.00,0,Wunderground v.1.15,2013-04-28 22:01:00,
2013-04-28 17:02:00,76.4,40.9,29.86,SSE,148,4.0,10.0,28,0.00,,,0.00,0,Wunderground v.1.15,2013-04-28 22:02:00,
2013-04-28 17:05:00,76.7,42.0,29.86,SSE,164,2.0,10.0,29,0.00,,,0.00,0,Wunderground v.1.15,2013-04-28 22:05:00,
2013-04-28 17:07:00,77.1,42.4,29.86,SSE,164,6.0,10.0,29,0.00,,,0.00,0,Wunderground v.1.15,2013-04-28 22:07:00,
2013-04-28 17:08:00,77.2,42.5,29.86,SE,143,7.0,13.0,29,0.00,,,0.00,0,Wunderground v.1.15,2013-04-28 22:08:00,
2013-04-28 17:10:00,77.5,41.8,29.86,South,174,9.0,11.0,28,0.00,,,0.00,0,Wunderground v.1.15,2013-04-28 22:10:00,
2013-04-28 17:12:00,77.5,40.9,29.86,SSE,150,9.0,15.0,27,0.00,,,0.00,0,Wunderground v.1.15,2013-04-28 22:12:00,
2013-04-28 17:13:00,77.5,40.9,29.85,SE,143,11.0,15.0,27,0.00,,,0.00,0,Wunderground v.1.15,2013-04-28 22:13:00,
2013-04-28 17:15:00,77.4,41.7,29.86,South,170,8.0,15.0,28,0.00,,,0.00,0,Wunderground v.1.15,2013-04-28 22:15:00,
2013-04-28 17:17:00,77.4,40.8,29.85,South,190,4.0,18.0,27,0.00,,,0.00,0,Wunderground v.1.15,2013-04-28 22:17:00,
2013-04-28 17:18:00,77.4,40.8,29.85,South,177,5.0,18.0,27,0.00,,,0.00,0,Wunderground v.1.15,2013-04-28 22:18:00,
2013-04-28 17:20:00,77.3,41.6,29.85,South,171,5.0,5.0,28,0.00,,,0.00,0,Wunderground v.1.15,2013-04-28 22:20:00,
2013-04-28 17:22:00,77.3,41.6,29.85,SSE,147,6.0,10.0,28,0.00,,,0.00,0,Wunderground v.1.15,2013-04-28 22:22:00,
2013-04-28 17:23:00,77.3,41.6,29.85,SSE,155,7.0,10.0,28,0.00,,,0.00,0,Wunderground v.1.15,2013-04-28 22:23:00,
2013-04-28 17:24:00,77.3,40.7,29.85,SSE,167,4.0,10.0,27,0.00,,,0.00,0,Wunderground v.1.15,2013-04-28 22:24:00,
2013-04-28 17:25:00,77.2,40.6,29.85,South,178,8.0,12.0,27,0.00,,,0.00,0,Wunderground v.1.15,2013-04-28 22:25:00,
2013-04-28 17:27:00,76.9,40.4,29.85,SSE,163,9.0,12.0,27,0.00,,,0.00,0,Wunderground v.1.15,2013-04-28 22:27:00,
2013-04-28 17:28:00,76.9,40.4,29.85,SSE,160,8.0,12.0,27,0.00,,,0.00,0,Wunderground v.1.15,2013-04-28 22:28:00,
2013-04-28 17:29:00,76.7,40.2,29.84,SSE,162,2.0,15.0,27,0.00,,,0.00,0,Wunderground v.1.15,2013-04-28 22:29:00,
2013-04-28 17:30:00,76.6,40.1,29.85,South,180,12.0,13.0,27,0.00,,,0.00,0,Wunderground v.1.15,2013-04-28 22:30:00,
2013-04-28 17:32:00,76.3,38.9,29.84,South,173,8.0,13.0,26,0.00,,,0.00,0,Wunderground v.1.15,2013-04-28 22:32:00,
2013-04-28 17:33:00,76.3,38.9,29.84,South,184,10.0,13.0,26,0.00,,,0.00,0,Wunderground v.1.15,2013-04-28 22:33:00,
2013-04-28 17:34:00,76.3,38.9,29.84,SSW,209,7.0,13.0,26,0.00,,,0.00,0,Wunderground v.1.15,2013-04-28 22:34:00,
2013-04-28 17:35:00,76.3,39.8,29.84,SSW,204,5.0,13.0,27,0.00,,,0.00,0,Wunderground v.1.15,2013-04-28 22:35:00,
2013-04-28 17:38:00,76.2,39.8,29.85,SSE,162,5.0,13.0,27,0.00,,,0.00,0,Wunderground v.1.15,2013-04-28 22:38:00,
2013-04-28 17:39:00,76.2,40.7,29.84,SSE,166,6.0,13.0,28,0.00,,,0.00,0,Wunderground v.1.15,2013-04-28 22:39:00,
2013-04-28 17:41:00,76.1,39.7,29.84,SSE,166,4.0,8.0,27,0.00,,,0.00,0,Wunderground v.1.15,2013-04-28 22:41:00,
2013-04-28 17:43:00,76.0,40.5,29.85,South,186,5.0,11.0,28,0.00,,,0.00,0,Wunderground v.1.15,2013-04-28 22:43:00,
2013-04-28 17:44:00,76.0,40.5,29.85,South,173,6.0,11.0,28,0.00,,,0.00,0,Wunderground v.1.15,2013-04-28 22:44:00,
2013-04-28 17:45:00,75.8,40.4,29.84,SSE,163,10.0,13.0,28,0.00,,,0.00,0,Wunderground v.1.15,2013-04-28 22:45:00,
2013-04-28 17:46:00,75.8,40.4,29.84,South,180,6.0,13.0,28,0.00,,,0.00,0,Wunderground v.1.15,2013-04-28 22:46:00,
2013-04-28 17:48:00,75.7,40.3,29.85,South,185,5.0,17.0,28,0.00,,,0.00,0,Wunderground v.1.15,2013-04-28 22:48:00,
2013-04-28 17:49:00,75.7,40.3,29.84,South,187,6.0,17.0,28,0.00,,,0.00,0,Wunderground v.1.15,2013-04-28 22:49:00,
2013-04-28 17:50:00,75.6,40.2,29.85,South,180,6.0,10.0,28,0.00,,,0.00,0,Wunderground v.1.15,2013-04-28 22:50:00,
2013-04-28 17:51:00,75.5,40.1,29.85,SW,215,13.0,13.0,28,0.00,,,0.00,0,Wunderground v.1.15,2013-04-28 22:51:00,
2013-04-28 17:53:00,75.4,37.1,29.84,SSW,210,12.0,14.0,25,0.00,,,0.00,0,Wunderground v.1.15,2013-04-28 22:53:00,
2013-04-28 17:54:00,75.3,37.0,29.84,SSW,198,11.0,14.0,25,0.00,,,0.00,0,Wunderground v.1.15,2013-04-28 22:54:00,
2013-04-28 17:55:00,75.5,37.2,29.84,South,177,7.0,14.0,25,0.00,,,0.00,0,Wunderground v.1.15,2013-04-28 22:55:00,
2013-04-28 17:57:00,75.5,36.2,29.84,SSE,165,6.0,14.0,24,0.00,,,0.00,0,Wunderground v.1.15,2013-04-28 22:57:00,
2013-04-28 17:59:00,75.5,36.2,29.84,SW,218,9.0,14.0,24,0.00,,,0.00,0,Wunderground v.1.15,2013-04-28 22:59:00,
2013-04-28 18:00:00,75.4,36.1,29.85,SW,221,11.0,13.0,24,0.00,,,0.00,0,Wunderground v.1.15,2013-04-28 23:00:00,
2013-04-28 18:03:00,75.1,37.9,29.86,SSW,207,10.0,13.0,26,0.00,,,0.00,0,Wunderground v.1.15,2013-04-28 23:03:00,
2013-04-28 18:04:00,74.9,37.7,29.86,South,178,8.0,13.0,26,0.00,,,0.00,0,Wunderground v.1.15,2013-04-28 23:04:00,
2013-04-28 18:06:00,74.7,37.5,29.86,SSE,160,4.0,13.0,26,0.00,,,0.00,0,Wunderground v.1.15,2013-04-28 23:06:00,
2013-04-28 18:08:00,74.5,37.3,29.87,SW,230,11.0,13.0,26,0.00,,,0.00,0,Wunderground v.1.15,2013-04-28 23:08:00,
2013-04-28 18:10:00,74.2,39.9,29.87,SW,223,17.0,23.0,29,0.00,,,0.00,0,Wunderground v.1.15,2013-04-28 23:10:00,
2013-04-28 18:11:00,73.0,43.7,29.87,SW,234,28.0,28.0,35,0.00,,,0.00,0,Wunderground v.1.15,2013-04-28 23:11:00,
2013-04-28 18:13:00,71.1,46.2,29.89,SW,234,14.0,28.0,41,0.00,,,0.00,0,Wunderground v.1.15,2013-04-28 23:13:00,
2013-04-28 18:15:00,68.8,46.6,29.89,SW,232,12.0,28.0,45,0.00,,,0.00,0,Wunderground v.1.15,2013-04-28 23:15:00,
2013-04-28 18:16:00,67.8,47.9,29.89,WSW,239,14.0,28.0,49,0.00,,,0.00,0,Wunderground v.1.15,2013-04-28 23:16:00,
2013-04-28 18:18:00,66.7,48.0,29.89,WSW,240,20.0,28.0,51,0.00,,,0.00,0,Wunderground v.1.15,2013-04-28 23:18:00,
2013-04-28 18:20:00,65.5,47.9,29.90,WSW,239,5.0,8.0,53,0.00,,,0.00,0,Wunderground v.1.15,2013-04-28 23:20:00,
2013-04-28 18:22:00,65.1,47.5,29.89,SSW,199,0.0,14.0,53,0.00,,,0.00,0,Wunderground v.1.15,2013-04-28 23:22:00,
2013-04-28 18:23:00,64.8,47.3,29.88,SSE,153,4.0,14.0,53,0.00,,,0.00,0,Wunderground v.1.15,2013-04-28 23:23:00,
2013-04-28 18:25:00,64.5,47.5,29.88,SSE,156,3.0,14.0,54,0.00,,,0.00,0,Wunderground v.1.15,2013-04-28 23:25:00,
2013-04-28 18:27:00,64.2,47.7,29.88,South,169,1.0,14.0,55,0.00,,,0.00,0,Wunderground v.1.15,2013-04-28 23:27:00,
2013-04-28 18:29:00,63.8,48.3,29.88,South,169,1.0,14.0,57,0.00,,,0.00,0,Wunderground v.1.15,2013-04-28 23:29:00,
2013-04-28 18:30:00,63.5,48.0,29.88,South,169,0.0,1.0,57,0.00,,,0.00,0,Wunderground v.1.15,2013-04-28 23:30:00,
2013-04-28 18:32:00,63.3,48.7,29.88,South,169,2.0,3.0,59,0.00,,,0.00,0,Wunderground v.1.15,2013-04-28 23:32:00,
2013-04-28 18:34:00,63.1,49.0,29.88,SSE,156,3.0,7.0,60,0.00,,,0.00,0,Wunderground v.1.15,2013-04-28 23:34:00,
2013-04-28 18:36:00,62.9,49.2,29.88,SSE,156,2.0,7.0,61,0.00,,,0.00,0,Wunderground v.1.15,2013-04-28 23:36:00,
2013-04-28 18:37:00,62.8,49.6,29.87,SSE,156,3.0,7.0,62,0.00,,,0.00,0,Wunderground v.1.15,2013-04-28 23:37:00,
2013-04-28 18:39:00,62.5,50.2,29.87,SSE,150,3.0,7.0,64,0.00,,,0.00,0,Wunderground v.1.15,2013-04-28 23:39:00,
2013-04-28 18:41:00,62.2,50.7,29.87,SSE,150,0.0,3.0,66,0.00,,,0.00,0,Wunderground v.1.15,2013-04-28 23:41:00,
2013-04-28 18:42:00,62.1,50.6,29.87,SSE,150,0.0,3.0,66,0.00,,,0.00,0,Wunderground v.1.15,2013-04-28 23:42:00,
2013-04-28 18:44:00,61.9,50.8,29.87,SSE,150,0.0,3.0,67,0.00,,,0.00,0,Wunderground v.1.15,2013-04-28 23:44:00,
2013-04-28 18:46:00,61.9,51.2,29.87,SSE,149,2.0,4.0,68,0.00,,,0.00,0,Wunderground v.1.15,2013-04-28 23:46:00,
2013-04-28 18:47:00,61.8,51.5,29.87,SSE,150,1.0,4.0,69,0.00,,,0.00,0,Wunderground v.1.15,2013-04-28 23:47:00,
2013-04-28 18:49:00,61.7,51.8,29.88,SSE,150,1.0,4.0,70,0.00,,,0.00,0,Wunderground v.1.15,2013-04-28 23:49:00,
2013-04-28 18:51:00,61.6,52.1,29.87,SSE,150,0.0,1.0,71,0.00,,,0.00,0,Wunderground v.1.15,2013-04-28 23:51:00,
2013-04-28 18:52:00,61.6,52.1,29.87,SSE,150,0.0,1.0,71,0.00,,,0.00,0,Wunderground v.1.15,2013-04-28 23:52:00,
2013-04-28 18:53:00,61.5,52.0,29.87,SSE,150,2.0,2.0,71,0.00,,,0.00,0,Wunderground v.1.15,2013-04-28 23:53:00,
2013-04-28 18:55:00,61.5,52.4,29.88,SSE,150,1.0,2.0,72,0.00,,,0.00,0,Wunderground v.1.15,2013-04-28 23:55:00,
2013-04-28 18:56:00,61.5,52.0,29.88,SSE,150,1.0,3.0,71,0.00,,,0.00,0,Wunderground v.1.15,2013-04-28 23:56:00,
2013-04-28 18:57:00,61.5,52.0,29.87,SSE,150,1.0,3.0,71,0.00,,,0.00,0,Wunderground v.1.15,2013-04-28 23:57:00,
2013-04-28 18:58:00,61.5,52.0,29.87,SSE,150,1.0,3.0,71,0.00,,,0.00,0,Wunderground v.1.15,2013-04-28 23:58:00,
2013-04-28 19:00:00,61.6,52.1,29.87,SSE,150,0.0,1.0,71,0.00,,,0.00,0,Wunderground v.1.15,2013-04-29 00:00:00,
2013-04-28 19:02:00,61.6,52.1,29.87,SSE,150,1.0,3.0,71,0.00,,,0.00,0,Wunderground v.1.15,2013-04-29 00:02:00,
2013-04-28 19:03:00,61.7,52.2,29.88,SSE,150,2.0,3.0,71,0.00,,,0.00,0,Wunderground v.1.15,2013-04-29 00:03:00,
2013-04-28 19:04:00,61.7,52.2,29.87,SSE,150,0.0,3.0,71,0.00,,,0.00,0,Wunderground v.1.15,2013-04-29 00:04:00,
2013-04-28 19:05:00,61.8,52.3,29.88,SSE,150,1.0,3.0,71,0.00,,,0.00,0,Wunderground v.1.15,2013-04-29 00:05:00,
2013-04-28 19:07:00,61.9,52.8,29.88,SSE,150,1.0,3.0,72,0.00,,,0.00,0,Wunderground v.1.15,2013-04-29 00:07:00,
2013-04-28 19:08:00,61.9,52.4,29.87,SSE,150,3.0,3.0,71,0.00,,,0.00,0,Wunderground v.1.15,2013-04-29 00:08:00,
2013-04-28 19:09:00,61.9,52.4,29.88,SSE,150,2.0,3.0,71,0.00,,,0.00,0,Wunderground v.1.15,2013-04-29 00:09:00,
2013-04-28 19:10:00,61.9,52.4,29.88,SSE,150,0.0,0.0,71,0.00,,,0.00,0,Wunderground v.1.15,2013-04-29 00:10:00,
2013-04-28 19:12:00,61.9,52.4,29.88,SSE,150,0.0,0.0,71,0.00,,,0.00,0,Wunderground v.1.15,2013-04-29 00:12:00,
2013-04-28 19:13:00,61.9,52.0,29.87,SSE,150,0.0,1.0,70,0.00,,,0.00,0,Wunderground v.1.15,2013-04-29 00:13:00,
2013-04-28 19:14:00,61.9,52.0,29.87,SSE,150,0.0,1.0,70,0.00,,,0.00,0,Wunderground v.1.15,2013-04-29 00:14:00,
2013-04-28 19:16:00,62.0,51.7,29.88,SSE,150,1.0,2.0,69,0.00,,,0.00,0,Wunderground v.1.15,2013-04-29 00:16:00,
2013-04-28 19:18:00,62.2,51.9,29.88,SSE,150,0.0,3.0,69,0.00,,,0.00,0,Wunderground v.1.15,2013-04-29 00:18:00,
2013-04-28 19:19:00,62.3,52.0,29.88,SSE,150,0.0,3.0,69,0.00,,,0.00,0,Wunderground v.1.15,2013-04-29 00:19:00,
2013-04-28 19:21:00,62.4,51.7,29.88,SSE,150,1.0,2.0,68,0.00,,,0.00,0,Wunderground v.1.15,2013-04-29 00:21:00,
2013-04-28 19:23:00,62.6,51.5,29.87,SSE,150,0.0,2.0,67,0.00,,,0.00,0,Wunderground v.1.15,2013-04-29 00:23:00,
2013-04-28 19:24:00,62.7,51.2,29.88,SSE,150,0.0,2.0,66,0.00,,,0.00,0,Wunderground v.1.15,2013-04-29 00:24:00,
2013-04-28 19:26:00,62.9,51.0,29.88,SSE,150,0.0,2.0,65,0.00,,,0.00,0,Wunderground v.1.15,2013-04-29 00:26:00,
2013-04-28 19:28:00,63.0,50.6,29.88,SSE,151,5.0,5.0,64,0.00,,,0.00,0,Wunderground v.1.15,2013-04-29 00:28:00,
2013-04-28 19:29:00,63.2,50.0,29.88,SSE,152,0.0,5.0,62,0.00,,,0.00,0,Wunderground v.1.15,2013-04-29 00:29:00,
2013-04-28 19:30:00,63.5,50.2,29.88,SSE,152,1.0,5.0,62,0.00,,,0.00,0,Wunderground v.1.15,2013-04-29 00:30:00,
2013-04-28 19:31:00,63.7,49.5,29.88,SSE,152,0.0,1.0,60,0.00,,,0.00,0,Wunderground v.1.15,2013-04-29 00:31:00,
2013-04-28 19:33:00,63.9,49.7,29.88,SSE,152,0.0,2.0,60,0.00,,,0.00,0,Wunderground v.1.15,2013-04-29 00:33:00,
2013-04-28 19:34:00,64.0,49.8,29.88,SSE,152,0.0,2.0,60,0.00,,,0.00,0,Wunderground v.1.15,2013-04-29 00:34:00,
2013-04-28 19:35:00,64.0,50.3,29.88,SSE,152,0.0,2.0,61,0.00,,,0.00,0,Wunderground v.1.15,2013-04-29 00:35:00,
2013-04-28 19:36:00,64.0,50.3,29.88,SSE,152,0.0,2.0,61,0.00,,,0.00,0,Wunderground v.1.15,2013-04-29 00:36:00,
2013-04-28 19:39:00,64.0,49.8,29.88,SSE,152,0.0,2.0,60,0.00,,,0.00,0,Wunderground v.1.15,2013-04-29 00:39:00,
2013-04-28 19:40:00,64.0,49.8,29.88,SSE,152,0.0,1.0,60,0.00,,,0.00,0,Wunderground v.1.15,2013-04-29 00:40:00,
2013-04-28 19:42:00,64.0,49.8,29.88,SSE,152,0.0,1.0,60,0.00,,,0.00,0,Wunderground v.1.15,2013-04-29 00:42:00,
2013-04-28 19:44:00,64.0,49.8,29.88,SSE,152,0.0,1.0,60,0.00,,,0.00,0,Wunderground v.1.15,2013-04-29 00:44:00,
2013-04-28 19:46:00,63.9,49.7,29.88,SSE,152,0.0,1.0,60,0.00,,,0.00,0,Wunderground v.1.15,2013-04-29 00:46:00,
2013-04-28 19:47:00,63.9,50.2,29.88,SSE,152,0.0,1.0,61,0.00,,,0.00,0,Wunderground v.1.15,2013-04-29 00:47:00,
2013-04-28 19:49:00,63.8,50.1,29.88,SSE,152,0.0,1.0,61,0.00,,,0.00,0,Wunderground v.1.15,2013-04-29 00:49:00,
2013-04-28 19:52:00,63.7,49.5,29.88,SSE,152,0.0,0.0,60,0.00,,,0.00,0,Wunderground v.1.15,2013-04-29 00:52:00,
2013-04-28 19:53:00,63.7,50.0,29.88,SSE,152,0.0,0.0,61,0.00,,,0.00,0,Wunderground v.1.15,2013-04-29 00:53:00,
2013-04-28 19:54:00,63.7,50.0,29.88,SSE,152,0.0,1.0,61,0.00,,,0.00,0,Wunderground v.1.15,2013-04-29 00:54:00,
2013-04-28 19:55:00,63.6,50.3,29.88,SSE,152,0.0,1.0,62,0.00,,,0.00,0,Wunderground v.1.15,2013-04-29 00:55:00,
2013-04-28 19:58:00,63.1,50.7,29.88,SSE,152,0.0,1.0,64,0.00,,,0.00,0,Wunderground v.1.15,2013-04-29 00:58:00,
2013-04-28 19:59:00,62.9,51.0,29.89,SSE,152,0.0,1.0,65,0.00,,,0.00,0,Wunderground v.1.15,2013-04-29 00:59:00,
2013-04-28 20:00:00,62.8,50.9,29.88,SSE,152,0.0,0.0,65,0.00,,,0.00,0,Wunderground v.1.15,2013-04-29 01:00:00,
2013-04-28 20:03:00,62.5,50.6,29.88,SSE,152,0.0,0.0,65,0.00,,,0.00,0,Wunderground v.1.15,2013-04-29 01:03:00,
2013-04-28 20:04:00,62.4,50.9,29.88,SSE,152,0.0,0.0,66,0.00,,,0.00,0,Wunderground v.1.15,2013-04-29 01:04:00,
2013-04-28 20:05:00,62.4,50.9,29.88,SSE,152,0.0,0.0,66,0.00,,,0.00,0,Wunderground v.1.15,2013-04-29 01:05:00,
2013-04-28 20:08:00,62.3,50.8,29.88,SSE,152,0.0,0.0,66,0.00,,,0.00,0,Wunderground v.1.15,2013-04-29 01:08:00,
2013-04-28 20:09:00,62.2,51.1,29.88,SSE,152,0.0,0.0,67,0.00,,,0.00,0,Wunderground v.1.15,2013-04-29 01:09:00,
2013-04-28 20:10:00,62.1,51.0,29.89,SSE,152,0.0,0.0,67,0.00,,,0.00,0,Wunderground v.1.15,2013-04-29 01:10:00,
2013-04-28 20:11:00,62.1,51.0,29.89,SSE,152,0.0,0.0,67,0.00,,,0.00,0,Wunderground v.1.15,2013-04-29 01:11:00,
2013-04-28 20:13:00,61.9,50.8,29.89,SSE,152,0.0,0.0,67,0.00,,,0.00,0,Wunderground v.1.15,2013-04-29 01:13:00,
2013-04-28 20:14:00,61.9,50.8,29.89,SSE,152,1.0,2.0,67,0.00,,,0.00,0,Wunderground v.1.15,2013-04-29 01:14:00,
2013-04-28 20:16:00,61.8,51.1,29.90,SSE,161,2.0,4.0,68,0.00,,,0.00,0,Wunderground v.1.15,2013-04-29 01:16:00,
2013-04-28 20:18:00,61.5,50.8,29.89,South,174,3.0,4.0,68,0.00,,,0.00,0,Wunderground v.1.15,2013-04-29 01:18:00,
2013-04-28 20:19:00,61.6,50.5,29.90,South,175,1.0,4.0,67,0.00,,,0.00,0,Wunderground v.1.15,2013-04-29 01:19:00,
2013-04-28 20:20:00,61.6,50.5,29.90,South,181,3.0,3.0,67,0.00,,,0.00,0,Wunderground v.1.15,2013-04-29 01:20:00,
2013-04-28 20:21:00,61.7,50.2,29.90,WSW,258,3.0,6.0,66,0.00,,,0.00,0,Wunderground v.1.15,2013-04-29 01:21:00,
2013-04-28 20:23:00,61.9,50.0,29.89,West,262,4.0,6.0,65,0.00,,,0.00,0,Wunderground v.1.15,2013-04-29 01:23:00,
2013-04-28 20:24:00,62.0,49.7,29.90,West,281,5.0,6.0,64,0.00,,,0.00,0,Wunderground v.1.15,2013-04-29 01:24:00,
2013-04-28 20:25:00,62.2,49.4,29.90,West,281,2.0,6.0,63,0.00,,,0.00,0,Wunderground v.1.15,2013-04-29 01:25:00,
2013-04-28 20:26:00,62.5,49.3,29.90,West,281,2.0,6.0,62,0.00,,,0.00,0,Wunderground v.1.15,2013-04-29 01:26:00,
2013-04-28 20:27:00,62.5,49.3,29.90,West,281,2.0,6.0,62,0.00,,,0.00,0,Wunderground v.1.15,2013-04-29 01:27:00,
2013-04-28 20:28:00,62.8,48.7,29.90,West,281,2.0,6.0,60,0.00,,,0.00,0,Wunderground v.1.15,2013-04-29 01:28:00,
2013-04-28 20:29:00,63.0,48.4,29.89,WNW,290,7.0,10.0,59,0.00,,,0.00,0,Wunderground v.1.15,2013-04-29 01:29:00,
2013-04-28 20:31:00,63.3,47.8,29.89,WNW,290,3.0,6.0,57,0.00,,,0.00,0,Wunderground v.1.15,2013-04-29 01:31:00,
2013-04-28 20:32:00,63.6,47.1,29.89,WNW,290,7.0,7.0,55,0.00,,,0.00,0,Wunderground v.1.15,2013-04-29 01:32:00,
2013-04-28 20:33:00,64.0,46.5,29.89,WNW,291,5.0,7.0,53,0.00,,,0.00,0,Wunderground v.1.15,2013-04-29 01:33:00,
2013-04-28 20:34:00,64.3,45.8,29.89,WNW,301,3.0,11.0,51,0.00,,,0.00,0,Wunderground v.1.15,2013-04-29 01:34:00,
2013-04-28 20:37:00,64.9,45.3,29.91,WNW,301,6.0,11.0,49,0.00,,,0.00,0,Wunderground v.1.15,2013-04-29 01:37:00,
2013-04-28 20:39:00,65.2,44.5,29.90,WNW,297,5.0,11.0,47,0.00,,,0.00,0,Wunderground v.1.15,2013-04-29 01:39:00,
2013-04-28 20:42:00,65.5,44.2,29.90,WNW,301,4.0,8.0,46,0.00,,,0.00,0,Wunderground v.1.15,2013-04-29 01:42:00,
2013-04-28 20:43:00,65.5,44.2,29.90,WNW,301,0.0,8.0,46,0.00,,,0.00,0,Wunderground v.1.15,2013-04-29 01:43:00,
2013-04-28 20:44:00,65.4,44.6,29.90,NNW,338,0.0,9.0,47,0.00,,,0.00,0,Wunderground v.1.15,2013-04-29 01:44:00,
2013-04-28 20:45:00,65.4,44.6,29.91,NNW,338,0.0,9.0,47,0.00,,,0.00,0,Wunderground v.1.15,2013-04-29 01:45:00,
2013-04-28 20:47:00,65.4,44.1,29.90,North,0,3.0,13.0,46,0.00,,,0.00,0,Wunderground v.1.15,2013-04-29 01:47:00,
2013-04-28 20:48:00,65.5,44.2,29.90,North,0,2.0,13.0,46,0.00,,,0.00,0,Wunderground v.1.15,2013-04-29 01:48:00,
2013-04-28 20:50:00,65.5,43.6,29.91,North,0,2.0,13.0,45,0.00,,,0.00,0,Wunderground v.1.15,2013-04-29 01:50:00,
2013-04-28 20:52:00,65.6,43.1,29.90,NW,326,5.0,8.0,44,0.00,,,0.00,0,Wunderground v.1.15,2013-04-29 01:52:00,
2013-04-28 20:53:00,65.6,43.1,29.91,NNW,337,7.0,8.0,44,0.00,,,0.00,0,Wunderground v.1.15,2013-04-29 01:53:00,
2013-04-28 20:55:00,65.8,43.3,29.92,NNW,342,1.0,8.0,44,0.00,,,0.00,0,Wunderground v.1.15,2013-04-29 01:55:00,
2013-04-28 20:56:00,65.7,43.2,29.92,NNW,342,3.0,8.0,44,0.00,,,0.00,0,Wunderground v.1.15,2013-04-29 01:56:00,
2013-04-28 20:57:00,65.7,42.6,29.91,NNW,343,1.0,8.0,43,0.00,,,0.00,0,Wunderground v.1.15,2013-04-29 01:57:00,
2013-04-28 20:58:00,65.7,42.6,29.91,NNW,343,0.0,8.0,43,0.00,,,0.00,0,Wunderground v.1.15,2013-04-29 01:58:00,
2013-04-28 20:59:00,65.7,42.6,29.92,NNW,343,2.0,8.0,43,0.00,,,0.00,0,Wunderground v.1.15,2013-04-29 01:59:00,
2013-04-28 21:01:00,65.7,42.0,29.91,NW,326,1.0,6.0,42,0.00,,,0.00,0,Wunderground v.1.15,2013-04-29 02:01:00,
2013-04-28 21:03:00,65.8,42.1,29.92,NW,326,2.0,6.0,42,0.00,,,0.00,0,Wunderground v.1.15,2013-04-29 02:03:00,
2013-04-28 21:05:00,65.7,42.0,29.92,NNW,327,0.0,6.0,42,0.00,,,0.00,0,Wunderground v.1.15,2013-04-29 02:05:00,
2013-04-28 21:06:00,65.6,41.9,29.92,NNW,327,2.0,6.0,42,0.00,,,0.00,0,Wunderground v.1.15,2013-04-29 02:06:00,
2013-04-28 21:08:00,65.5,41.8,29.92,NNW,328,0.0,7.0,42,0.00,,,0.00,0,Wunderground v.1.15,2013-04-29 02:08:00,
2013-04-28 21:10:00,65.5,43.0,29.92,NNW,328,0.0,1.0,44,0.00,,,0.00,0,Wunderground v.1.15,2013-04-29 02:10:00,
2013-04-28 21:11:00,65.3,42.8,29.92,NNW,328,4.0,4.0,44,0.00,,,0.00,0,Wunderground v.1.15,2013-04-29 02:11:00,
2013-04-28 21:12:00,65.2,43.3,29.92,NNW,328,0.0,4.0,45,0.00,,,0.00,0,Wunderground v.1.15,2013-04-29 02:12:00,
2013-04-28 21:13:00,65.0,43.1,29.92,NNW,328,0.0,4.0,45,0.00,,,0.00,0,Wunderground v.1.15,2013-04-29 02:13:00,
2013-04-28 21:14:00,64.9,43.6,29.92,NNW,328,3.0,4.0,46,0.00,,,0.00,0,Wunderground v.1.15,2013-04-29 02:14:00,
2013-04-28 21:15:00,64.7,43.4,29.92,NNW,328,0.0,4.0,46,0.00,,,0.00,0,Wunderground v.1.15,2013-04-29 02:15:00,
2013-04-28 21:16:00,64.5,42.7,29.93,NNW,328,1.0,4.0,45,0.00,,,0.00,0,Wunderground v.1.15,2013-04-29 02:16:00,
2013-04-28 21:17:00,64.5,42.7,29.93,NNW,327,0.0,4.0,45,0.00,,,0.00,0,Wunderground v.1.15,2013-04-29 02:17:00,
2013-04-28 21:19:00,64.4,42.6,29.94,NW,323,6.0,7.0,45,0.00,,,0.00,0,Wunderground v.1.15,2013-04-29 02:19:00,
2013-04-28 21:20:00,64.4,42.6,29.94,NW,320,5.0,7.0,45,0.00,,,0.00,0,Wunderground v.1.15,2013-04-29 02:20:00,
2013-04-28 21:22:00,64.4,42.6,29.95,NW,319,7.0,7.0,45,0.00,,,0.00,0,Wunderground v.1.15,2013-04-29 02:22:00,
2013-04-28 21:24:00,64.2,43.0,29.95,NW,314,6.0,9.0,46,0.00,,,0.00,0,Wunderground v.1.15,2013-04-29 02:24:00,
2013-04-28 21:25:00,64.2,43.0,29.96,NW,313,6.0,9.0,46,0.00,,,0.00,0,Wunderground v.1.15,2013-04-29 02:25:00,
2013-04-28 21:27:00,64.2,42.4,29.96,NW,310,11.0,11.0,45,0.00,,,0.00,0,Wunderground v.1.15,2013-04-29 02:27:00,
2013-04-28 21:30:00,64.3,43.1,29.96,WNW,300,3.0,3.0,46,0.00,,,0.00,0,Wunderground v.1.15,2013-04-29 02:30:00,
2013-04-28 21:31:00,64.2,43.0,29.96,WNW,301,2.0,8.0,46,0.00,,,0.00,0,Wunderground v.1.15,2013-04-29 02:31:00,
2013-04-28 21:32:00,64.0,43.4,29.96,NW,311,7.0,8.0,47,0.00,,,0.00,0,Wunderground v.1.15,2013-04-29 02:32:00,
2013-04-28 21:33:00,64.0,43.4,29.96,NW,311,3.0,8.0,47,0.00,,,0.00,0,Wunderground v.1.15,2013-04-29 02:33:00,
2013-04-28 21:35:00,63.5,44.5,29.97,NW,312,2.0,8.0,50,0.00,,,0.00,0,Wunderground v.1.15,2013-04-29 02:35:00,
2013-04-28 21:36:00,63.2,44.2,29.96,NW,312,4.0,8.0,50,0.00,,,0.00,0,Wunderground v.1.15,2013-04-29 02:36:00,
2013-04-28 21:38:00,62.7,44.3,29.96,NNW,327,3.0,11.0,51,0.00,,,0.00,0,Wunderground v.1.15,2013-04-29 02:38:00,
2013-04-28 21:40:00,62.1,44.8,29.95,NW,312,2.0,6.0,53,0.00,,,0.00,0,Wunderground v.1.15,2013-04-29 02:40:00,
2013-04-28 21:41:00,61.9,44.6,29.95,NNW,331,11.0,11.0,53,0.00,,,0.00,0,Wunderground v.1.15,2013-04-29 02:41:00,
2013-04-28 21:42:00,61.5,44.7,29.96,NNW,336,5.0,11.0,54,0.00,,,0.00,0,Wunderground v.1.15,2013-04-29 02:42:00,
2013-04-28 21:43:00,61.2,44.9,29.96,NNW,347,0.0,11.0,55,0.00,,,0.00,0,Wunderground v.1.15,2013-04-29 02:43:00,
2013-04-28 21:46:00,60.6,45.3,29.97,NNW,347,2.0,13.0,57,0.00,,,0.00,0,Wunderground v.1.15,2013-04-29 02:46:00,
2013-04-28 21:47:00,60.3,45.0,29.96,NNW,345,1.0,13.0,57,0.00,,,0.00,0,Wunderground v.1.15,2013-04-29 02:47:00,
2013-04-28 21:48:00,60.1,45.3,29.96,NNW,347,3.0,13.0,58,0.00,,,0.00,0,Wunderground v.1.15,2013-04-29 02:48:00,
2013-04-28 21:51:00,59.8,45.4,29.96,NNW,339,0.0,5.0,59,0.00,,,0.00,0,Wunderground v.1.15,2013-04-29 02:51:00,
2013-04-28 21:53:00,59.4,45.5,29.95,North,0,6.0,11.0,60,0.00,,,0.00,0,Wunderground v.1.15,2013-04-29 02:53:00,
2013-04-28 21:54:00,59.4,45.5,29.95,North,0,5.0,11.0,60,0.00,,,0.00,0,Wunderground v.1.15,2013-04-29 02:54:00,
2013-04-28 21:56:00,59.2,45.3,29.95,North,5,1.0,11.0,60,0.00,,,0.00,0,Wunderground v.1.15,2013-04-29 02:56:00,
2013-04-28 21:58:00,59.1,45.2,29.94,North,0,8.0,11.0,60,0.00,,,0.00,0,Wunderground v.1.15,2013-04-29 02:58:00,
2013-04-28 21:59:00,59.1,45.2,29.94,North,0,6.0,11.0,60,0.00,,,0.00,0,Wunderground v.1.15,2013-04-29 02:59:00,
2013-04-28 22:01:00,59.0,45.1,29.95,North,0,2.0,6.0,60,0.00,,,0.00,0,Wunderground v.1.15,2013-04-29 03:01:00,
2013-04-28 22:04:00,58.9,45.5,29.95,North,0,1.0,6.0,61,0.00,,,0.00,0,Wunderground v.1.15,2013-04-29 03:04:00,
2013-04-28 22:06:00,58.8,45.4,29.94,North,0,2.0,6.0,61,0.00,,,0.00,0,Wunderground v.1.15,2013-04-29 03:06:00,
2013-04-28 22:07:00,58.8,45.4,29.95,North,0,0.0,6.0,61,0.00,,,0.00,0,Wunderground v.1.15,2013-04-29 03:07:00,
2013-04-28 22:09:00,58.8,45.4,29.95,North,0,0.0,6.0,61,0.00,,,0.00,0,Wunderground v.1.15,2013-04-29 03:09:00,
2013-04-28 22:11:00,58.7,45.3,29.94,North,10,3.0,8.0,61,0.00,,,0.00,0,Wunderground v.1.15,2013-04-29 03:11:00,
2013-04-28 22:13:00,58.7,45.3,29.95,North,10,3.0,8.0,61,0.00,,,0.00,0,Wunderground v.1.15,2013-04-29 03:13:00,
2013-04-28 22:14:00,58.7,45.3,29.96,North,10,2.0,8.0,61,0.00,,,0.00,0,Wunderground v.1.15,2013-04-29 03:14:00,
2013-04-28 22:15:00,58.7,45.3,29.95,North,0,2.0,8.0,61,0.00,,,0.00,0,Wunderground v.1.15,2013-04-29 03:15:00,
2013-04-28 22:17:00,58.7,45.7,29.97,North,0,1.0,8.0,62,0.00,,,0.00,0,Wunderground v.1.15,2013-04-29 03:17:00,
2013-04-28 22:19:00,58.6,45.6,29.97,North,0,1.0,8.0,62,0.00,,,0.00,0,Wunderground v.1.15,2013-04-29 03:19:00,
2013-04-28 22:20:00,58.6,46.0,29.97,North,0,2.0,2.0,63,0.00,,,0.00,0,Wunderground v.1.15,2013-04-29 03:20:00,
2013-04-28 22:23:00,58.4,45.8,29.97,North,0,0.0,2.0,63,0.00,,,0.00,0,Wunderground v.1.15,2013-04-29 03:23:00,
2013-04-28 22:24:00,58.4,45.8,29.97,North,0,0.0,2.0,63,0.00,,,0.00,0,Wunderground v.1.15,2013-04-29 03:24:00,
2013-04-28 22:25:00,58.4,45.8,29.97,North,0,0.0,2.0,63,0.00,,,0.00,0,Wunderground v.1.15,2013-04-29 03:25:00,
2013-04-28 22:26:00,58.3,45.8,29.97,North,0,1.0,2.0,63,0.00,,,0.00,0,Wunderground v.1.15,2013-04-29 03:26:00,
2013-04-28 22:28:00,58.3,45.8,29.97,North,0,1.0,3.0,63,0.00,,,0.00,0,Wunderground v.1.15,2013-04-29 03:28:00,
2013-04-28 22:30:00,58.3,46.2,29.97,North,0,0.0,0.0,64,0.00,,,0.00,0,Wunderground v.1.15,2013-04-29 03:30:00,
2013-04-28 22:32:00,58.2,46.1,29.98,North,0,0.0,1.0,64,0.00,,,0.00,0,Wunderground v.1.15,2013-04-29 03:32:00,
2013-04-28 22:33:00,58.2,46.1,29.97,North,0,0.0,1.0,64,0.00,,,0.00,0,Wunderground v.1.15,2013-04-29 03:33:00,
2013-04-28 22:35:00,58.1,46.0,29.96,North,0,1.0,1.0,64,0.00,,,0.00,0,Wunderground v.1.15,2013-04-29 03:35:00,
2013-04-28 22:36:00,58.0,45.9,29.96,North,0,0.0,1.0,64,0.00,,,0.00,0,Wunderground v.1.15,2013-04-29 03:36:00,
2013-04-28 22:37:00,58.0,46.3,29.97,North,0,0.0,1.0,65,0.00,,,0.00,0,Wunderground v.1.15,2013-04-29 03:37:00,
2013-04-28 22:38:00,58.0,46.3,29.97,North,0,0.0,1.0,65,0.00,,,0.00,0,Wunderground v.1.15,2013-04-29 03:38:00,
2013-04-28 22:40:00,57.9,46.2,29.96,North,0,0.0,1.0,65,0.00,,,0.00,0,Wunderground v.1.15,2013-04-29 03:40:00,
2013-04-28 22:41:00,57.9,46.2,29.96,North,0,0.0,1.0,65,0.00,,,0.00,0,Wunderground v.1.15,2013-04-29 03:41:00,
2013-04-28 22:42:00,57.9,46.2,29.96,North,0,0.0,1.0,65,0.00,,,0.00,0,Wunderground v.1.15,2013-04-29 03:42:00,
2013-04-28 22:43:00,57.9,46.2,29.96,North,0,0.0,1.0,65,0.00,,,0.00,0,Wunderground v.1.15,2013-04-29 03:43:00,
2013-04-28 22:46:00,57.9,46.6,29.97,North,0,0.0,1.0,66,0.00,,,0.00,0,Wunderground v.1.15,2013-04-29 03:46:00,
2013-04-28 22:48:00,57.7,46.4,29.96,North,0,0.0,1.0,66,0.00,,,0.00,0,Wunderground v.1.15,2013-04-29 03:48:00,
2013-04-28 22:51:00,57.5,46.6,29.96,North,0,0.0,0.0,67,0.00,,,0.00,0,Wunderground v.1.15,2013-04-29 03:51:00,
2013-04-28 22:53:00,57.2,46.7,29.95,North,0,0.0,0.0,68,0.00,,,0.00,0,Wunderground v.1.15,2013-04-29 03:53:00,
2013-04-28 22:56:00,57.0,46.9,29.96,North,0,0.0,0.0,69,0.00,,,0.00,0,Wunderground v.1.15,2013-04-29 03:56:00,
2013-04-28 22:59:00,56.8,47.1,29.96,North,0,0.0,0.0,70,0.00,,,0.00,0,Wunderground v.1.15,2013-04-29 03:59:00,
2013-04-28 23:01:00,56.6,46.9,29.96,North,0,0.0,0.0,70,0.00,,,0.00,0,Wunderground v.1.15,2013-04-29 04:01:00,
2013-04-28 23:06:00,56.3,47.4,29.95,North,0,0.0,1.0,72,0.00,,,0.00,0,Wunderground v.1.15,2013-04-29 04:06:00,
2013-04-28 23:11:00,55.9,47.7,29.96,North,0,1.0,1.0,74,0.00,,,0.00,0,Wunderground v.1.15,2013-04-29 04:11:00,
2013-04-28 23:12:00,55.9,47.7,29.95,North,0,1.0,2.0,74,0.00,,,0.00,0,Wunderground v.1.15,2013-04-29 04:12:00,
2013-04-28 23:16:00,55.5,48.1,29.95,North,0,4.0,5.0,76,0.00,,,0.00,0,Wunderground v.1.15,2013-04-29 04:16:00,
2013-04-28 23:17:00,55.5,48.1,29.94,North,0,2.0,5.0,76,0.00,,,0.00,0,Wunderground v.1.15,2013-04-29 04:17:00,
2013-04-28 23:21:00,55.2,48.1,29.94,NNE,14,2.0,6.0,77,0.00,,,0.00,0,Wunderground v.1.15,2013-04-29 04:21:00,
2013-04-28 23:22:00,55.2,48.5,29.94,NNE,14,1.0,6.0,78,0.00,,,0.00,0,Wunderground v.1.15,2013-04-29 04:22:00,
2013-04-28 23:26:00,55.4,48.3,29.94,NNE,14,0.0,6.0,77,0.00,,,0.00,0,Wunderground v.1.15,2013-04-29 04:26:00,
2013-04-28 23:27:00,55.4,48.3,29.94,NNE,14,1.0,6.0,77,0.00,,,0.00,0,Wunderground v.1.15,2013-04-29 04:27:00,
2013-04-28 23:28:00,55.4,48.3,29.94,NNE,14,0.0,6.0,77,0.00,,,0.00,0,Wunderground v.1.15,2013-04-29 04:28:00,
2013-04-28 23:31:00,55.5,48.4,29.94,NNE,14,1.0,1.0,77,0.00,,,0.00,0,Wunderground v.1.15,2013-04-29 04:31:00,
2013-04-28 23:32:00,55.5,48.4,29.93,NNE,14,0.0,1.0,77,0.00,,,0.00,0,Wunderground v.1.15,2013-04-29 04:32:00,
2013-04-28 23:33:00,55.5,48.4,29.93,NNE,14,0.0,1.0,77,0.00,,,0.00,0,Wunderground v.1.15,2013-04-29 04:33:00,
2013-04-28 23:36:00,55.4,48.0,29.93,NNE,14,0.0,1.0,76,0.00,,,0.00,0,Wunderground v.1.15,2013-04-29 04:36:00,
2013-04-28 23:37:00,55.4,48.0,29.93,NNE,14,0.0,1.0,76,0.00,,,0.00,0,Wunderground v.1.15,2013-04-29 04:37:00,
2013-04-28 23:38:00,55.4,48.0,29.94,NNE,14,0.0,1.0,76,0.00,,,0.00,0,Wunderground v.1.15,2013-04-29 04:38:00,
2013-04-28 23:42:00,55.3,47.9,29.94,NNE,14,0.0,0.0,76,0.00,,,0.00,0,Wunderground v.1.15,2013-04-29 04:42:00,
2013-04-28 23:43:00,55.3,48.2,29.95,NNE,14,0.0,0.0,77,0.00,,,0.00,0,Wunderground v.1.15,2013-04-29 04:43:00,
2013-04-28 23:47:00,55.2,48.1,29.94,NNE,14,0.0,0.0,77,0.00,,,0.00,0,Wunderground v.1.15,2013-04-29 04:47:00,
2013-04-28 23:48:00,55.2,48.1,29.95,NNE,14,0.0,0.0,77,0.00,,,0.00,0,Wunderground v.1.15,2013-04-29 04:48:00,
2013-04-28 23:49:00,55.2,48.1,29.95,NNE,14,0.0,0.0,77,0.00,,,0.00,0,Wunderground v.1.15,2013-04-29 04:49:00,
2013-04-28 23:52:00,55.1,48.0,29.95,NNE,14,0.0,0.0,77,0.00,,,0.00,0,Wunderground v.1.15,2013-04-29 04:52:00,
2013-04-28 23:54:00,55.1,48.0,29.95,NNE,14,0.0,0.0,77,0.00,,,0.00,0,Wunderground v.1.15,2013-04-29 04:54:00,
2013-04-28 23:57:00,55.0,48.3,29.96,NNE,14,0.0,1.0,78,0.00,,,0.00,0,Wunderground v.1.15,2013-04-29 04:57:00,
2013-04-28 23:59:00,55.1,48.4,29.95,NNE,14,0.0,1.0,78,0.00,,,0.00,0,Wunderground v.1.15,2013-04-29 04:59:00,